<?xml version="1.0" encoding="UTF-8" standalone="no" ?>
<gpx xmlns="http://www.topografix.com/GPX/1/1" xmlns:xsi="http://www.w3.org/2001/XMLSchema-instance" xsi:schemaLocation="http://www.topografix.com/GPX/1/1 http://www.topografix.com/GPX/1/1/gpx.xsd" version="1.1" creator="VisuGPX - https://www.visugpx.com">
  <metadata>
    <name>parcours vtt jura</name>
    <desc><![CDATA[& er jour d'une boucle sur 2 jours
parcours de 57 KM 1200m]]></desc>
  </metadata>
  <trk>
    <name><![CDATA[1ER JOUR JURA 53 KM 1057M]]></name>
    <trkseg>
      <trkpt lat="46.73427" lon="6.11894">
        <ele>975</ele>
        <time>2010-05-11T12:50:45Z</time>
      </trkpt>
      <trkpt lat="46.73427" lon="6.11897">
        <ele>975</ele>
        <time>2010-05-11T12:50:45Z</time>
      </trkpt>
      <trkpt lat="46.73429" lon="6.11897">
        <ele>975</ele>
        <time>2010-05-11T12:50:45Z</time>
      </trkpt>
      <trkpt lat="46.73437" lon="6.11999">
        <ele>973</ele>
        <time>2010-05-11T12:50:45Z</time>
      </trkpt>
      <trkpt lat="46.73437" lon="6.12153">
        <ele>968</ele>
        <time>2010-05-11T12:50:45Z</time>
      </trkpt>
      <trkpt lat="46.73441" lon="6.12232">
        <ele>964</ele>
        <time>2010-05-11T12:50:45Z</time>
      </trkpt>
      <trkpt lat="46.73453" lon="6.12334">
        <ele>961</ele>
        <time>2010-05-11T12:50:45Z</time>
      </trkpt>
      <trkpt lat="46.73448" lon="6.12409">
        <ele>960</ele>
        <time>2010-05-11T12:50:45Z</time>
      </trkpt>
      <trkpt lat="46.73417" lon="6.12525">
        <ele>960</ele>
        <time>2010-05-11T12:50:45Z</time>
      </trkpt>
      <trkpt lat="46.73412" lon="6.12567">
        <ele>960</ele>
        <time>2010-05-11T12:50:45Z</time>
      </trkpt>
      <trkpt lat="46.73412" lon="6.1262">
        <ele>960</ele>
        <time>2010-05-11T12:50:45Z</time>
      </trkpt>
      <trkpt lat="46.73417" lon="6.12662">
        <ele>960</ele>
        <time>2010-05-11T12:50:45Z</time>
      </trkpt>
      <trkpt lat="46.73437" lon="6.12739">
        <ele>961</ele>
        <time>2010-05-11T12:50:45Z</time>
      </trkpt>
      <trkpt lat="46.73446" lon="6.12818">
        <ele>962</ele>
        <time>2010-05-11T12:50:45Z</time>
      </trkpt>
      <trkpt lat="46.73505" lon="6.12888">
        <ele>968</ele>
        <time>2010-05-11T12:50:45Z</time>
      </trkpt>
      <trkpt lat="46.73531" lon="6.13093">
        <ele>970</ele>
        <time>2010-05-11T12:50:45Z</time>
      </trkpt>
      <trkpt lat="46.73616" lon="6.13138">
        <ele>976</ele>
        <time>2010-05-11T12:50:45Z</time>
      </trkpt>
      <trkpt lat="46.73625" lon="6.13208">
        <ele>977</ele>
        <time>2010-05-11T12:50:45Z</time>
      </trkpt>
      <trkpt lat="46.73637" lon="6.13313">
        <ele>980</ele>
        <time>2010-05-11T12:50:45Z</time>
      </trkpt>
      <trkpt lat="46.7364" lon="6.13428">
        <ele>981</ele>
        <time>2010-05-11T12:50:45Z</time>
      </trkpt>
      <trkpt lat="46.73649" lon="6.1354">
        <ele>984</ele>
        <time>2010-05-11T12:50:45Z</time>
      </trkpt>
      <trkpt lat="46.73643" lon="6.13592">
        <ele>985</ele>
        <time>2010-05-11T12:50:45Z</time>
      </trkpt>
      <trkpt lat="46.73628" lon="6.13634">
        <ele>987</ele>
        <time>2010-05-11T12:50:45Z</time>
      </trkpt>
      <trkpt lat="46.73613" lon="6.13682">
        <ele>988</ele>
        <time>2010-05-11T12:50:45Z</time>
      </trkpt>
      <trkpt lat="46.73606" lon="6.13763">
        <ele>988</ele>
        <time>2010-05-11T12:50:45Z</time>
      </trkpt>
      <trkpt lat="46.73594" lon="6.13851">
        <ele>988</ele>
        <time>2010-05-11T12:50:45Z</time>
      </trkpt>
      <trkpt lat="46.73592" lon="6.13906">
        <ele>989</ele>
        <time>2010-05-11T12:50:45Z</time>
      </trkpt>
      <trkpt lat="46.73572" lon="6.13915">
        <ele>989</ele>
        <time>2010-05-11T12:50:45Z</time>
      </trkpt>
      <trkpt lat="46.73553" lon="6.13936">
        <ele>989</ele>
        <time>2010-05-11T12:50:45Z</time>
      </trkpt>
      <trkpt lat="46.73541" lon="6.13971">
        <ele>989</ele>
        <time>2010-05-11T12:50:45Z</time>
      </trkpt>
      <trkpt lat="46.73556" lon="6.14035">
        <ele>990</ele>
        <time>2010-05-11T12:50:45Z</time>
      </trkpt>
      <trkpt lat="46.73572" lon="6.14121">
        <ele>994</ele>
        <time>2010-05-11T12:50:45Z</time>
      </trkpt>
      <trkpt lat="46.73584" lon="6.14145">
        <ele>997</ele>
        <time>2010-05-11T12:50:45Z</time>
      </trkpt>
      <trkpt lat="46.73616" lon="6.1415">
        <ele>1001</ele>
        <time>2010-05-11T12:50:45Z</time>
      </trkpt>
      <trkpt lat="46.73667" lon="6.1417">
        <ele>1007</ele>
        <time>2010-05-11T12:50:45Z</time>
      </trkpt>
      <trkpt lat="46.73729" lon="6.14181">
        <ele>1014</ele>
        <time>2010-05-11T12:50:45Z</time>
      </trkpt>
      <trkpt lat="46.73785" lon="6.14201">
        <ele>1019</ele>
        <time>2010-05-11T12:50:45Z</time>
      </trkpt>
      <trkpt lat="46.73843" lon="6.14222">
        <ele>1022</ele>
        <time>2010-05-11T12:50:45Z</time>
      </trkpt>
      <trkpt lat="46.73905" lon="6.14252">
        <ele>1023</ele>
        <time>2010-05-11T12:50:45Z</time>
      </trkpt>
      <trkpt lat="46.73935" lon="6.143">
        <ele>1023</ele>
        <time>2010-05-11T12:50:45Z</time>
      </trkpt>
      <trkpt lat="46.7394" lon="6.1436">
        <ele>1021</ele>
        <time>2010-05-11T12:50:45Z</time>
      </trkpt>
      <trkpt lat="46.73947" lon="6.14406">
        <ele>1022</ele>
        <time>2010-05-11T12:50:45Z</time>
      </trkpt>
      <trkpt lat="46.73955" lon="6.14436">
        <ele>1023</ele>
        <time>2010-05-11T12:50:45Z</time>
      </trkpt>
      <trkpt lat="46.7394" lon="6.14478">
        <ele>1025</ele>
        <time>2010-05-11T12:50:45Z</time>
      </trkpt>
      <trkpt lat="46.73912" lon="6.14512">
        <ele>1025</ele>
        <time>2010-05-11T12:50:45Z</time>
      </trkpt>
      <trkpt lat="46.73882" lon="6.14533">
        <ele>1021</ele>
        <time>2010-05-11T12:50:45Z</time>
      </trkpt>
      <trkpt lat="46.73863" lon="6.14561">
        <ele>1020</ele>
        <time>2010-05-11T12:50:45Z</time>
      </trkpt>
      <trkpt lat="46.73835" lon="6.14605">
        <ele>1017</ele>
        <time>2010-05-11T12:50:45Z</time>
      </trkpt>
      <trkpt lat="46.73821" lon="6.14672">
        <ele>1013</ele>
        <time>2010-05-11T12:50:45Z</time>
      </trkpt>
      <trkpt lat="46.73882" lon="6.14667">
        <ele>1016</ele>
        <time>2010-05-11T12:50:45Z</time>
      </trkpt>
      <trkpt lat="46.73942" lon="6.14687">
        <ele>1017</ele>
        <time>2010-05-11T12:50:45Z</time>
      </trkpt>
      <trkpt lat="46.73982" lon="6.14703">
        <ele>1013</ele>
        <time>2010-05-11T12:50:45Z</time>
      </trkpt>
      <trkpt lat="46.74016" lon="6.14703">
        <ele>1008</ele>
        <time>2010-05-11T12:50:45Z</time>
      </trkpt>
      <trkpt lat="46.74062" lon="6.14748">
        <ele>1006</ele>
        <time>2010-05-11T12:50:45Z</time>
      </trkpt>
      <trkpt lat="46.74089" lon="6.14747">
        <ele>1004</ele>
        <time>2010-05-11T12:50:45Z</time>
      </trkpt>
      <trkpt lat="46.74115" lon="6.14782">
        <ele>1008</ele>
        <time>2010-05-11T12:50:45Z</time>
      </trkpt>
      <trkpt lat="46.74131" lon="6.14835">
        <ele>1010</ele>
        <time>2010-05-11T12:50:45Z</time>
      </trkpt>
      <trkpt lat="46.74112" lon="6.1487">
        <ele>1010</ele>
        <time>2010-05-11T12:50:45Z</time>
      </trkpt>
      <trkpt lat="46.74064" lon="6.14948">
        <ele>1015</ele>
        <time>2010-05-11T12:50:45Z</time>
      </trkpt>
      <trkpt lat="46.7404" lon="6.14992">
        <ele>1017</ele>
        <time>2010-05-11T12:50:45Z</time>
      </trkpt>
      <trkpt lat="46.74032" lon="6.15031">
        <ele>1016</ele>
        <time>2010-05-11T12:50:45Z</time>
      </trkpt>
      <trkpt lat="46.74045" lon="6.15045">
        <ele>1014</ele>
        <time>2010-05-11T12:50:45Z</time>
      </trkpt>
      <trkpt lat="46.74082" lon="6.15025">
        <ele>1009</ele>
        <time>2010-05-11T12:50:45Z</time>
      </trkpt>
      <trkpt lat="46.74138" lon="6.1496">
        <ele>1003</ele>
        <time>2010-05-11T12:50:45Z</time>
      </trkpt>
      <trkpt lat="46.74202" lon="6.14873">
        <ele>1001</ele>
        <time>2010-05-11T12:50:45Z</time>
      </trkpt>
      <trkpt lat="46.74257" lon="6.14844">
        <ele>998</ele>
        <time>2010-05-11T12:50:45Z</time>
      </trkpt>
      <trkpt lat="46.74313" lon="6.14841">
        <ele>992</ele>
        <time>2010-05-11T12:50:45Z</time>
      </trkpt>
      <trkpt lat="46.74364" lon="6.14858">
        <ele>990</ele>
        <time>2010-05-11T12:50:45Z</time>
      </trkpt>
      <trkpt lat="46.74407" lon="6.14864">
        <ele>985</ele>
        <time>2010-05-11T12:50:45Z</time>
      </trkpt>
      <trkpt lat="46.74436" lon="6.14801">
        <ele>986</ele>
        <time>2010-05-11T12:50:45Z</time>
      </trkpt>
      <trkpt lat="46.74528" lon="6.1484">
        <ele>971</ele>
        <time>2010-05-11T12:50:45Z</time>
      </trkpt>
      <trkpt lat="46.74641" lon="6.14848">
        <ele>969</ele>
        <time>2010-05-11T12:50:45Z</time>
      </trkpt>
      <trkpt lat="46.74703" lon="6.14853">
        <ele>973</ele>
        <time>2010-05-11T12:50:45Z</time>
      </trkpt>
      <trkpt lat="46.74795" lon="6.14813">
        <ele>984</ele>
        <time>2010-05-11T12:50:45Z</time>
      </trkpt>
      <trkpt lat="46.74868" lon="6.14786">
        <ele>991</ele>
        <time>2010-05-11T12:50:45Z</time>
      </trkpt>
      <trkpt lat="46.74926" lon="6.1479">
        <ele>992</ele>
        <time>2010-05-11T12:50:45Z</time>
      </trkpt>
      <trkpt lat="46.74984" lon="6.14827">
        <ele>993</ele>
        <time>2010-05-11T12:50:45Z</time>
      </trkpt>
      <trkpt lat="46.75025" lon="6.14803">
        <ele>995</ele>
        <time>2010-05-11T12:50:45Z</time>
      </trkpt>
      <trkpt lat="46.75047" lon="6.14805">
        <ele>998</ele>
        <time>2010-05-11T12:50:45Z</time>
      </trkpt>
      <trkpt lat="46.75088" lon="6.14795">
        <ele>1001</ele>
        <time>2010-05-11T12:50:45Z</time>
      </trkpt>
      <trkpt lat="46.75142" lon="6.14812">
        <ele>1005</ele>
        <time>2010-05-11T12:50:45Z</time>
      </trkpt>
      <trkpt lat="46.75206" lon="6.14777">
        <ele>1008</ele>
        <time>2010-05-11T12:50:45Z</time>
      </trkpt>
      <trkpt lat="46.75278" lon="6.14775">
        <ele>1009</ele>
        <time>2010-05-11T12:50:45Z</time>
      </trkpt>
      <trkpt lat="46.7537" lon="6.14765">
        <ele>1008</ele>
        <time>2010-05-11T12:50:45Z</time>
      </trkpt>
      <trkpt lat="46.75337" lon="6.14792">
        <ele>1009</ele>
        <time>2010-05-11T12:50:45Z</time>
      </trkpt>
      <trkpt lat="46.75297" lon="6.14852">
        <ele>1011</ele>
        <time>2010-05-11T12:50:45Z</time>
      </trkpt>
      <trkpt lat="46.7527" lon="6.14916">
        <ele>1014</ele>
        <time>2010-05-11T12:50:45Z</time>
      </trkpt>
      <trkpt lat="46.75264" lon="6.15033">
        <ele>1021</ele>
        <time>2010-05-11T12:50:45Z</time>
      </trkpt>
      <trkpt lat="46.75256" lon="6.15118">
        <ele>1025</ele>
        <time>2010-05-11T12:50:45Z</time>
      </trkpt>
      <trkpt lat="46.75239" lon="6.15162">
        <ele>1027</ele>
        <time>2010-05-11T12:50:45Z</time>
      </trkpt>
      <trkpt lat="46.7522" lon="6.15187">
        <ele>1027</ele>
        <time>2010-05-11T12:50:45Z</time>
      </trkpt>
      <trkpt lat="46.75168" lon="6.15216">
        <ele>1024</ele>
        <time>2010-05-11T12:50:45Z</time>
      </trkpt>
      <trkpt lat="46.75101" lon="6.15248">
        <ele>1023</ele>
        <time>2010-05-11T12:50:45Z</time>
      </trkpt>
      <trkpt lat="46.7505" lon="6.1529">
        <ele>1025</ele>
        <time>2010-05-11T12:50:45Z</time>
      </trkpt>
      <trkpt lat="46.75" lon="6.15322">
        <ele>1025</ele>
        <time>2010-05-11T12:50:45Z</time>
      </trkpt>
      <trkpt lat="46.74953" lon="6.15365">
        <ele>1022</ele>
        <time>2010-05-11T12:50:45Z</time>
      </trkpt>
      <trkpt lat="46.74942" lon="6.15377">
        <ele>1021</ele>
        <time>2010-05-11T12:50:45Z</time>
      </trkpt>
      <trkpt lat="46.74961" lon="6.15411">
        <ele>1021</ele>
        <time>2010-05-11T12:50:45Z</time>
      </trkpt>
      <trkpt lat="46.74931" lon="6.15481">
        <ele>1022</ele>
        <time>2010-05-11T12:50:45Z</time>
      </trkpt>
      <trkpt lat="46.7491" lon="6.15585">
        <ele>1029</ele>
        <time>2010-05-11T12:50:45Z</time>
      </trkpt>
      <trkpt lat="46.74936" lon="6.15619">
        <ele>1033</ele>
        <time>2010-05-11T12:50:45Z</time>
      </trkpt>
      <trkpt lat="46.7493" lon="6.15648">
        <ele>1035</ele>
        <time>2010-05-11T12:50:45Z</time>
      </trkpt>
      <trkpt lat="46.74941" lon="6.15662">
        <ele>1037</ele>
        <time>2010-05-11T12:50:45Z</time>
      </trkpt>
      <trkpt lat="46.7498" lon="6.15635">
        <ele>1037</ele>
        <time>2010-05-11T12:50:45Z</time>
      </trkpt>
      <trkpt lat="46.75019" lon="6.15609">
        <ele>1038</ele>
        <time>2010-05-11T12:50:45Z</time>
      </trkpt>
      <trkpt lat="46.7506" lon="6.15618">
        <ele>1043</ele>
        <time>2010-05-11T12:50:45Z</time>
      </trkpt>
      <trkpt lat="46.75081" lon="6.15659">
        <ele>1046</ele>
        <time>2010-05-11T12:50:45Z</time>
      </trkpt>
      <trkpt lat="46.75095" lon="6.15699">
        <ele>1048</ele>
        <time>2010-05-11T12:50:45Z</time>
      </trkpt>
      <trkpt lat="46.75089" lon="6.15745">
        <ele>1049</ele>
        <time>2010-05-11T12:50:45Z</time>
      </trkpt>
      <trkpt lat="46.75112" lon="6.15743">
        <ele>1051</ele>
        <time>2010-05-11T12:50:45Z</time>
      </trkpt>
      <trkpt lat="46.75215" lon="6.15691">
        <ele>1056</ele>
        <time>2010-05-11T12:50:45Z</time>
      </trkpt>
      <trkpt lat="46.75281" lon="6.15667">
        <ele>1058</ele>
        <time>2010-05-11T12:50:45Z</time>
      </trkpt>
      <trkpt lat="46.75409" lon="6.15685">
        <ele>1057</ele>
        <time>2010-05-11T12:50:45Z</time>
      </trkpt>
      <trkpt lat="46.75605" lon="6.15542">
        <ele>1048</ele>
        <time>2010-05-11T12:50:45Z</time>
      </trkpt>
      <trkpt lat="46.75682" lon="6.15466">
        <ele>1042</ele>
        <time>2010-05-11T12:50:45Z</time>
      </trkpt>
      <trkpt lat="46.75833" lon="6.15447">
        <ele>1034</ele>
        <time>2010-05-11T12:50:45Z</time>
      </trkpt>
      <trkpt lat="46.7589" lon="6.15441">
        <ele>1033</ele>
        <time>2010-05-11T12:50:45Z</time>
      </trkpt>
      <trkpt lat="46.7599" lon="6.15405">
        <ele>1029</ele>
        <time>2010-05-11T12:50:45Z</time>
      </trkpt>
      <trkpt lat="46.76055" lon="6.15485">
        <ele>1036</ele>
        <time>2010-05-11T12:50:45Z</time>
      </trkpt>
      <trkpt lat="46.76102" lon="6.15567">
        <ele>1035</ele>
        <time>2010-05-11T12:50:45Z</time>
      </trkpt>
      <trkpt lat="46.76136" lon="6.15671">
        <ele>1034</ele>
        <time>2010-05-11T12:50:45Z</time>
      </trkpt>
      <trkpt lat="46.76132" lon="6.15746">
        <ele>1037</ele>
        <time>2010-05-11T12:50:45Z</time>
      </trkpt>
      <trkpt lat="46.76167" lon="6.15834">
        <ele>1036</ele>
        <time>2010-05-11T12:50:45Z</time>
      </trkpt>
      <trkpt lat="46.76311" lon="6.15982">
        <ele>1042</ele>
        <time>2010-05-11T12:50:45Z</time>
      </trkpt>
      <trkpt lat="46.76283" lon="6.16068">
        <ele>1045</ele>
        <time>2010-05-11T12:50:45Z</time>
      </trkpt>
      <trkpt lat="46.76385" lon="6.16112">
        <ele>1051</ele>
        <time>2010-05-11T12:50:45Z</time>
      </trkpt>
      <trkpt lat="46.76375" lon="6.16213">
        <ele>1055</ele>
        <time>2010-05-11T12:50:45Z</time>
      </trkpt>
      <trkpt lat="46.76378" lon="6.16268">
        <ele>1055</ele>
        <time>2010-05-11T12:50:45Z</time>
      </trkpt>
      <trkpt lat="46.76344" lon="6.16322">
        <ele>1057</ele>
        <time>2010-05-11T12:50:45Z</time>
      </trkpt>
      <trkpt lat="46.76341" lon="6.16348">
        <ele>1059</ele>
        <time>2010-05-11T12:50:45Z</time>
      </trkpt>
      <trkpt lat="46.7637" lon="6.16442">
        <ele>1065</ele>
        <time>2010-05-11T12:50:45Z</time>
      </trkpt>
      <trkpt lat="46.76382" lon="6.16557">
        <ele>1068</ele>
        <time>2010-05-11T12:50:45Z</time>
      </trkpt>
      <trkpt lat="46.76363" lon="6.16644">
        <ele>1070</ele>
        <time>2010-05-11T12:50:45Z</time>
      </trkpt>
      <trkpt lat="46.76341" lon="6.16702">
        <ele>1074</ele>
        <time>2010-05-11T12:50:45Z</time>
      </trkpt>
      <trkpt lat="46.76324" lon="6.16736">
        <ele>1077</ele>
        <time>2010-05-11T12:50:45Z</time>
      </trkpt>
      <trkpt lat="46.76311" lon="6.16837">
        <ele>1078</ele>
        <time>2010-05-11T12:50:45Z</time>
      </trkpt>
      <trkpt lat="46.76321" lon="6.16949">
        <ele>1077</ele>
        <time>2010-05-11T12:50:45Z</time>
      </trkpt>
      <trkpt lat="46.76353" lon="6.17011">
        <ele>1076</ele>
        <time>2010-05-11T12:50:45Z</time>
      </trkpt>
      <trkpt lat="46.76412" lon="6.17067">
        <ele>1077</ele>
        <time>2010-05-11T12:50:45Z</time>
      </trkpt>
      <trkpt lat="46.76427" lon="6.17157">
        <ele>1079</ele>
        <time>2010-05-11T12:50:45Z</time>
      </trkpt>
      <trkpt lat="46.76377" lon="6.1736">
        <ele>1069</ele>
        <time>2010-05-11T12:50:45Z</time>
      </trkpt>
      <trkpt lat="46.76182" lon="6.17618">
        <ele>1044</ele>
        <time>2010-05-11T12:50:45Z</time>
      </trkpt>
      <trkpt lat="46.75965" lon="6.17763">
        <ele>1029</ele>
        <time>2010-05-11T12:50:45Z</time>
      </trkpt>
      <trkpt lat="46.75959" lon="6.17812">
        <ele>1030</ele>
        <time>2010-05-11T12:50:45Z</time>
      </trkpt>
      <trkpt lat="46.76039" lon="6.1784">
        <ele>1034</ele>
        <time>2010-05-11T12:50:45Z</time>
      </trkpt>
      <trkpt lat="46.7607" lon="6.17977">
        <ele>1034</ele>
        <time>2010-05-11T12:50:45Z</time>
      </trkpt>
      <trkpt lat="46.76169" lon="6.1799">
        <ele>1021</ele>
        <time>2010-05-11T12:50:45Z</time>
      </trkpt>
      <trkpt lat="46.76258" lon="6.1801">
        <ele>1018</ele>
        <time>2010-05-11T12:50:45Z</time>
      </trkpt>
      <trkpt lat="46.76307" lon="6.18053">
        <ele>1023</ele>
        <time>2010-05-11T12:50:45Z</time>
      </trkpt>
      <trkpt lat="46.76356" lon="6.18128">
        <ele>1024</ele>
        <time>2010-05-11T12:50:45Z</time>
      </trkpt>
      <trkpt lat="46.76417" lon="6.18287">
        <ele>1021</ele>
        <time>2010-05-11T12:50:45Z</time>
      </trkpt>
      <trkpt lat="46.76503" lon="6.1824">
        <ele>1019</ele>
        <time>2010-05-11T12:50:45Z</time>
      </trkpt>
      <trkpt lat="46.76585" lon="6.18223">
        <ele>1020</ele>
        <time>2010-05-11T12:50:45Z</time>
      </trkpt>
      <trkpt lat="46.76629" lon="6.18249">
        <ele>1025</ele>
        <time>2010-05-11T12:50:45Z</time>
      </trkpt>
      <trkpt lat="46.76678" lon="6.18312">
        <ele>1030</ele>
        <time>2010-05-11T12:50:45Z</time>
      </trkpt>
      <trkpt lat="46.7673" lon="6.18397">
        <ele>1030</ele>
        <time>2010-05-11T12:50:45Z</time>
      </trkpt>
      <trkpt lat="46.76743" lon="6.18507">
        <ele>1036</ele>
        <time>2010-05-11T12:50:45Z</time>
      </trkpt>
      <trkpt lat="46.76731" lon="6.18584">
        <ele>1041</ele>
        <time>2010-05-11T12:50:45Z</time>
      </trkpt>
      <trkpt lat="46.76706" lon="6.18638">
        <ele>1046</ele>
        <time>2010-05-11T12:50:45Z</time>
      </trkpt>
      <trkpt lat="46.76673" lon="6.18675">
        <ele>1052</ele>
        <time>2010-05-11T12:50:45Z</time>
      </trkpt>
      <trkpt lat="46.76645" lon="6.1869">
        <ele>1056</ele>
        <time>2010-05-11T12:50:45Z</time>
      </trkpt>
      <trkpt lat="46.76631" lon="6.18723">
        <ele>1056</ele>
        <time>2010-05-11T12:50:45Z</time>
      </trkpt>
      <trkpt lat="46.76588" lon="6.18789">
        <ele>1052</ele>
        <time>2010-05-11T12:50:45Z</time>
      </trkpt>
      <trkpt lat="46.76506" lon="6.18881">
        <ele>1054</ele>
        <time>2010-05-11T12:50:45Z</time>
      </trkpt>
      <trkpt lat="46.76439" lon="6.18939">
        <ele>1066</ele>
        <time>2010-05-11T12:50:45Z</time>
      </trkpt>
      <trkpt lat="46.76364" lon="6.18943">
        <ele>1071</ele>
        <time>2010-05-11T12:50:45Z</time>
      </trkpt>
      <trkpt lat="46.76285" lon="6.19029">
        <ele>1078</ele>
        <time>2010-05-11T12:50:45Z</time>
      </trkpt>
      <trkpt lat="46.76204" lon="6.19092">
        <ele>1077</ele>
        <time>2010-05-11T12:50:45Z</time>
      </trkpt>
      <trkpt lat="46.76108" lon="6.19079">
        <ele>1071</ele>
        <time>2010-05-11T12:50:45Z</time>
      </trkpt>
      <trkpt lat="46.76028" lon="6.19031">
        <ele>1064</ele>
        <time>2010-05-11T12:50:45Z</time>
      </trkpt>
      <trkpt lat="46.75985" lon="6.18985">
        <ele>1061</ele>
        <time>2010-05-11T12:50:45Z</time>
      </trkpt>
      <trkpt lat="46.75904" lon="6.18841">
        <ele>1054</ele>
        <time>2010-05-11T12:50:45Z</time>
      </trkpt>
      <trkpt lat="46.75873" lon="6.18813">
        <ele>1050</ele>
        <time>2010-05-11T12:50:45Z</time>
      </trkpt>
      <trkpt lat="46.75818" lon="6.18789">
        <ele>1045</ele>
        <time>2010-05-11T12:50:45Z</time>
      </trkpt>
      <trkpt lat="46.75789" lon="6.18787">
        <ele>1043</ele>
        <time>2010-05-11T12:50:45Z</time>
      </trkpt>
      <trkpt lat="46.75739" lon="6.18797">
        <ele>1038</ele>
        <time>2010-05-11T12:50:45Z</time>
      </trkpt>
      <trkpt lat="46.75688" lon="6.18777">
        <ele>1036</ele>
        <time>2010-05-11T12:50:45Z</time>
      </trkpt>
      <trkpt lat="46.75625" lon="6.18772">
        <ele>1034</ele>
        <time>2010-05-11T12:50:45Z</time>
      </trkpt>
      <trkpt lat="46.75546" lon="6.18773">
        <ele>1033</ele>
        <time>2010-05-11T12:50:45Z</time>
      </trkpt>
      <trkpt lat="46.75519" lon="6.18712">
        <ele>1038</ele>
        <time>2010-05-11T12:50:45Z</time>
      </trkpt>
      <trkpt lat="46.75497" lon="6.18678">
        <ele>1039</ele>
        <time>2010-05-11T12:50:45Z</time>
      </trkpt>
      <trkpt lat="46.75452" lon="6.18675">
        <ele>1036</ele>
        <time>2010-05-11T12:50:45Z</time>
      </trkpt>
      <trkpt lat="46.754" lon="6.18684">
        <ele>1038</ele>
        <time>2010-05-11T12:50:45Z</time>
      </trkpt>
      <trkpt lat="46.75363" lon="6.18665">
        <ele>1039</ele>
        <time>2010-05-11T12:50:45Z</time>
      </trkpt>
      <trkpt lat="46.75327" lon="6.18663">
        <ele>1041</ele>
        <time>2010-05-11T12:50:45Z</time>
      </trkpt>
      <trkpt lat="46.75327" lon="6.18663">
        <ele>1041</ele>
        <time>2010-05-11T12:50:45Z</time>
      </trkpt>
      <trkpt lat="46.75325" lon="6.18663">
        <ele>1041</ele>
        <time>2010-05-11T12:50:45Z</time>
      </trkpt>
      <trkpt lat="46.75324" lon="6.18666">
        <ele>1041</ele>
        <time>2010-05-11T12:50:45Z</time>
      </trkpt>
      <trkpt lat="46.75322" lon="6.18666">
        <ele>1041</ele>
        <time>2010-05-11T12:50:45Z</time>
      </trkpt>
      <trkpt lat="46.75322" lon="6.18666">
        <ele>1041</ele>
        <time>2010-05-11T12:50:45Z</time>
      </trkpt>
      <trkpt lat="46.75322" lon="6.18669">
        <ele>1041</ele>
        <time>2010-05-11T12:50:45Z</time>
      </trkpt>
      <trkpt lat="46.7532" lon="6.18669">
        <ele>1041</ele>
        <time>2010-05-11T12:50:45Z</time>
      </trkpt>
      <trkpt lat="46.75311" lon="6.18652">
        <ele>1041</ele>
        <time>2010-05-11T12:50:45Z</time>
      </trkpt>
      <trkpt lat="46.75311" lon="6.18648">
        <ele>1041</ele>
        <time>2010-05-11T12:50:45Z</time>
      </trkpt>
      <trkpt lat="46.75223" lon="6.18672">
        <ele>1042</ele>
        <time>2010-05-11T12:50:45Z</time>
      </trkpt>
      <trkpt lat="46.75181" lon="6.18646">
        <ele>1044</ele>
        <time>2010-05-11T12:50:45Z</time>
      </trkpt>
      <trkpt lat="46.75147" lon="6.18651">
        <ele>1046</ele>
        <time>2010-05-11T12:50:45Z</time>
      </trkpt>
      <trkpt lat="46.7509" lon="6.18683">
        <ele>1048</ele>
        <time>2010-05-11T12:50:45Z</time>
      </trkpt>
      <trkpt lat="46.7501" lon="6.18694">
        <ele>1049</ele>
        <time>2010-05-11T12:50:45Z</time>
      </trkpt>
      <trkpt lat="46.74954" lon="6.187">
        <ele>1049</ele>
        <time>2010-05-11T12:50:45Z</time>
      </trkpt>
      <trkpt lat="46.74921" lon="6.18688">
        <ele>1050</ele>
        <time>2010-05-11T12:50:45Z</time>
      </trkpt>
      <trkpt lat="46.74882" lon="6.18698">
        <ele>1048</ele>
        <time>2010-05-11T12:50:45Z</time>
      </trkpt>
      <trkpt lat="46.74865" lon="6.18726">
        <ele>1045</ele>
        <time>2010-05-11T12:50:45Z</time>
      </trkpt>
      <trkpt lat="46.74876" lon="6.18799">
        <ele>1040</ele>
        <time>2010-05-11T12:50:45Z</time>
      </trkpt>
      <trkpt lat="46.74858" lon="6.18877">
        <ele>1032</ele>
        <time>2010-05-11T12:50:45Z</time>
      </trkpt>
      <trkpt lat="46.74812" lon="6.1889">
        <ele>1026</ele>
        <time>2010-05-11T12:50:45Z</time>
      </trkpt>
      <trkpt lat="46.74723" lon="6.18939">
        <ele>1028</ele>
        <time>2010-05-11T12:50:45Z</time>
      </trkpt>
      <trkpt lat="46.74634" lon="6.18972">
        <ele>1034</ele>
        <time>2010-05-11T12:50:45Z</time>
      </trkpt>
      <trkpt lat="46.74597" lon="6.18989">
        <ele>1035</ele>
        <time>2010-05-11T12:50:45Z</time>
      </trkpt>
      <trkpt lat="46.7456" lon="6.19026">
        <ele>1031</ele>
        <time>2010-05-11T12:50:45Z</time>
      </trkpt>
      <trkpt lat="46.74508" lon="6.19035">
        <ele>1028</ele>
        <time>2010-05-11T12:50:45Z</time>
      </trkpt>
      <trkpt lat="46.74444" lon="6.19004">
        <ele>1024</ele>
        <time>2010-05-11T12:50:45Z</time>
      </trkpt>
      <trkpt lat="46.74387" lon="6.18961">
        <ele>1021</ele>
        <time>2010-05-11T12:50:45Z</time>
      </trkpt>
      <trkpt lat="46.74281" lon="6.18901">
        <ele>1014</ele>
        <time>2010-05-11T12:50:45Z</time>
      </trkpt>
      <trkpt lat="46.742" lon="6.18813">
        <ele>1016</ele>
        <time>2010-05-11T12:50:45Z</time>
      </trkpt>
      <trkpt lat="46.74166" lon="6.18817">
        <ele>1009</ele>
        <time>2010-05-11T12:50:45Z</time>
      </trkpt>
      <trkpt lat="46.74091" lon="6.18789">
        <ele>1008</ele>
        <time>2010-05-11T12:50:45Z</time>
      </trkpt>
      <trkpt lat="46.74021" lon="6.18784">
        <ele>1009</ele>
        <time>2010-05-11T12:50:45Z</time>
      </trkpt>
      <trkpt lat="46.73822" lon="6.1876">
        <ele>1019</ele>
        <time>2010-05-11T12:50:45Z</time>
      </trkpt>
      <trkpt lat="46.73629" lon="6.18589">
        <ele>1034</ele>
        <time>2010-05-11T12:50:45Z</time>
      </trkpt>
      <trkpt lat="46.73447" lon="6.18242">
        <ele>1036</ele>
        <time>2010-05-11T12:50:45Z</time>
      </trkpt>
      <trkpt lat="46.73405" lon="6.18219">
        <ele>1036</ele>
        <time>2010-05-11T12:50:45Z</time>
      </trkpt>
      <trkpt lat="46.73311" lon="6.18209">
        <ele>1033</ele>
        <time>2010-05-11T12:50:45Z</time>
      </trkpt>
      <trkpt lat="46.73272" lon="6.18158">
        <ele>1034</ele>
        <time>2010-05-11T12:50:45Z</time>
      </trkpt>
      <trkpt lat="46.7323" lon="6.18076">
        <ele>1035</ele>
        <time>2010-05-11T12:50:45Z</time>
      </trkpt>
      <trkpt lat="46.73206" lon="6.18055">
        <ele>1036</ele>
        <time>2010-05-11T12:50:45Z</time>
      </trkpt>
      <trkpt lat="46.73151" lon="6.18005">
        <ele>1035</ele>
        <time>2010-05-11T12:50:45Z</time>
      </trkpt>
      <trkpt lat="46.73088" lon="6.17928">
        <ele>1029</ele>
        <time>2010-05-11T12:50:45Z</time>
      </trkpt>
      <trkpt lat="46.73053" lon="6.17923">
        <ele>1026</ele>
        <time>2010-05-11T12:50:45Z</time>
      </trkpt>
      <trkpt lat="46.7301" lon="6.17903">
        <ele>1023</ele>
        <time>2010-05-11T12:50:45Z</time>
      </trkpt>
      <trkpt lat="46.72926" lon="6.17805">
        <ele>1021</ele>
        <time>2010-05-11T12:50:45Z</time>
      </trkpt>
      <trkpt lat="46.72936" lon="6.17767">
        <ele>1021</ele>
        <time>2010-05-11T12:50:45Z</time>
      </trkpt>
      <trkpt lat="46.72988" lon="6.17702">
        <ele>1016</ele>
        <time>2010-05-11T12:50:45Z</time>
      </trkpt>
      <trkpt lat="46.73" lon="6.17621">
        <ele>1010</ele>
        <time>2010-05-11T12:50:45Z</time>
      </trkpt>
      <trkpt lat="46.73002" lon="6.17539">
        <ele>1008</ele>
        <time>2010-05-11T12:50:45Z</time>
      </trkpt>
      <trkpt lat="46.72976" lon="6.17514">
        <ele>1008</ele>
        <time>2010-05-11T12:50:45Z</time>
      </trkpt>
      <trkpt lat="46.72973" lon="6.17478">
        <ele>1009</ele>
        <time>2010-05-11T12:50:45Z</time>
      </trkpt>
      <trkpt lat="46.73023" lon="6.17337">
        <ele>1032</ele>
        <time>2010-05-11T12:50:45Z</time>
      </trkpt>
      <trkpt lat="46.73013" lon="6.17281">
        <ele>1037</ele>
        <time>2010-05-11T12:50:45Z</time>
      </trkpt>
      <trkpt lat="46.73031" lon="6.17217">
        <ele>1044</ele>
        <time>2010-05-11T12:50:45Z</time>
      </trkpt>
      <trkpt lat="46.72965" lon="6.17124">
        <ele>1052</ele>
        <time>2010-05-11T12:50:45Z</time>
      </trkpt>
      <trkpt lat="46.72886" lon="6.17036">
        <ele>1056</ele>
        <time>2010-05-11T12:50:45Z</time>
      </trkpt>
      <trkpt lat="46.72896" lon="6.16962">
        <ele>1060</ele>
        <time>2010-05-11T12:50:45Z</time>
      </trkpt>
      <trkpt lat="46.72892" lon="6.1687">
        <ele>1070</ele>
        <time>2010-05-11T12:50:45Z</time>
      </trkpt>
      <trkpt lat="46.72871" lon="6.16763">
        <ele>1082</ele>
        <time>2010-05-11T12:50:45Z</time>
      </trkpt>
      <trkpt lat="46.72867" lon="6.16681">
        <ele>1084</ele>
        <time>2010-05-11T12:50:45Z</time>
      </trkpt>
      <trkpt lat="46.72868" lon="6.16645">
        <ele>1087</ele>
        <time>2010-05-11T12:50:45Z</time>
      </trkpt>
      <trkpt lat="46.72781" lon="6.16564">
        <ele>1082</ele>
        <time>2010-05-11T12:50:45Z</time>
      </trkpt>
      <trkpt lat="46.72689" lon="6.16472">
        <ele>1077</ele>
        <time>2010-05-11T12:50:45Z</time>
      </trkpt>
      <trkpt lat="46.72603" lon="6.16368">
        <ele>1075</ele>
        <time>2010-05-11T12:50:45Z</time>
      </trkpt>
      <trkpt lat="46.72537" lon="6.16314">
        <ele>1072</ele>
        <time>2010-05-11T12:50:45Z</time>
      </trkpt>
      <trkpt lat="46.72454" lon="6.16233">
        <ele>1067</ele>
        <time>2010-05-11T12:50:45Z</time>
      </trkpt>
      <trkpt lat="46.72411" lon="6.16168">
        <ele>1066</ele>
        <time>2010-05-11T12:50:45Z</time>
      </trkpt>
      <trkpt lat="46.72345" lon="6.16183">
        <ele>1062</ele>
        <time>2010-05-11T12:50:45Z</time>
      </trkpt>
      <trkpt lat="46.7228" lon="6.16181">
        <ele>1058</ele>
        <time>2010-05-11T12:50:45Z</time>
      </trkpt>
      <trkpt lat="46.72207" lon="6.1615">
        <ele>1055</ele>
        <time>2010-05-11T12:50:45Z</time>
      </trkpt>
      <trkpt lat="46.72137" lon="6.16079">
        <ele>1051</ele>
        <time>2010-05-11T12:50:45Z</time>
      </trkpt>
      <trkpt lat="46.72096" lon="6.16037">
        <ele>1049</ele>
        <time>2010-05-11T12:50:45Z</time>
      </trkpt>
      <trkpt lat="46.7206" lon="6.15953">
        <ele>1051</ele>
        <time>2010-05-11T12:50:45Z</time>
      </trkpt>
      <trkpt lat="46.72022" lon="6.15878">
        <ele>1053</ele>
        <time>2010-05-11T12:50:45Z</time>
      </trkpt>
      <trkpt lat="46.71978" lon="6.1578">
        <ele>1057</ele>
        <time>2010-05-11T12:50:45Z</time>
      </trkpt>
      <trkpt lat="46.71956" lon="6.15713">
        <ele>1061</ele>
        <time>2010-05-11T12:50:45Z</time>
      </trkpt>
      <trkpt lat="46.71955" lon="6.15657">
        <ele>1065</ele>
        <time>2010-05-11T12:50:45Z</time>
      </trkpt>
      <trkpt lat="46.71979" lon="6.15629">
        <ele>1066</ele>
        <time>2010-05-11T12:50:45Z</time>
      </trkpt>
      <trkpt lat="46.71991" lon="6.15594">
        <ele>1068</ele>
        <time>2010-05-11T12:50:45Z</time>
      </trkpt>
      <trkpt lat="46.71972" lon="6.1555">
        <ele>1069</ele>
        <time>2010-05-11T12:50:45Z</time>
      </trkpt>
      <trkpt lat="46.71939" lon="6.15545">
        <ele>1070</ele>
        <time>2010-05-11T12:50:45Z</time>
      </trkpt>
      <trkpt lat="46.71911" lon="6.1549">
        <ele>1072</ele>
        <time>2010-05-11T12:50:45Z</time>
      </trkpt>
      <trkpt lat="46.71898" lon="6.15417">
        <ele>1074</ele>
        <time>2010-05-11T12:50:45Z</time>
      </trkpt>
      <trkpt lat="46.71903" lon="6.15392">
        <ele>1075</ele>
        <time>2010-05-11T12:50:45Z</time>
      </trkpt>
      <trkpt lat="46.71897" lon="6.15316">
        <ele>1078</ele>
        <time>2010-05-11T12:50:45Z</time>
      </trkpt>
      <trkpt lat="46.71907" lon="6.1529">
        <ele>1079</ele>
        <time>2010-05-11T12:50:45Z</time>
      </trkpt>
      <trkpt lat="46.7194" lon="6.15244">
        <ele>1081</ele>
        <time>2010-05-11T12:50:45Z</time>
      </trkpt>
      <trkpt lat="46.71949" lon="6.15172">
        <ele>1082</ele>
        <time>2010-05-11T12:50:45Z</time>
      </trkpt>
      <trkpt lat="46.71942" lon="6.15126">
        <ele>1086</ele>
        <time>2010-05-11T12:50:45Z</time>
      </trkpt>
      <trkpt lat="46.71909" lon="6.15075">
        <ele>1090</ele>
        <time>2010-05-11T12:50:45Z</time>
      </trkpt>
      <trkpt lat="46.71884" lon="6.15033">
        <ele>1089</ele>
        <time>2010-05-11T12:50:45Z</time>
      </trkpt>
      <trkpt lat="46.71861" lon="6.14963">
        <ele>1088</ele>
        <time>2010-05-11T12:50:45Z</time>
      </trkpt>
      <trkpt lat="46.71819" lon="6.1494">
        <ele>1088</ele>
        <time>2010-05-11T12:50:45Z</time>
      </trkpt>
      <trkpt lat="46.71772" lon="6.14931">
        <ele>1087</ele>
        <time>2010-05-11T12:50:45Z</time>
      </trkpt>
      <trkpt lat="46.71671" lon="6.14855">
        <ele>1079</ele>
        <time>2010-05-11T12:50:45Z</time>
      </trkpt>
      <trkpt lat="46.71624" lon="6.14779">
        <ele>1078</ele>
        <time>2010-05-11T12:50:45Z</time>
      </trkpt>
      <trkpt lat="46.71548" lon="6.14705">
        <ele>1071</ele>
        <time>2010-05-11T12:50:45Z</time>
      </trkpt>
      <trkpt lat="46.71461" lon="6.14686">
        <ele>1058</ele>
        <time>2010-05-11T12:50:45Z</time>
      </trkpt>
      <trkpt lat="46.71398" lon="6.14675">
        <ele>1052</ele>
        <time>2010-05-11T12:50:45Z</time>
      </trkpt>
      <trkpt lat="46.71317" lon="6.14555">
        <ele>1054</ele>
        <time>2010-05-11T12:50:45Z</time>
      </trkpt>
      <trkpt lat="46.712" lon="6.14412">
        <ele>1048</ele>
        <time>2010-05-11T12:50:45Z</time>
      </trkpt>
      <trkpt lat="46.71163" lon="6.14419">
        <ele>1045</ele>
        <time>2010-05-11T12:50:45Z</time>
      </trkpt>
      <trkpt lat="46.71109" lon="6.14488">
        <ele>1039</ele>
        <time>2010-05-11T12:50:45Z</time>
      </trkpt>
      <trkpt lat="46.70913" lon="6.14176">
        <ele>1036</ele>
        <time>2010-05-11T12:50:45Z</time>
      </trkpt>
      <trkpt lat="46.70892" lon="6.14129">
        <ele>1036</ele>
        <time>2010-05-11T12:50:45Z</time>
      </trkpt>
      <trkpt lat="46.70828" lon="6.14069">
        <ele>1037</ele>
        <time>2010-05-11T12:50:45Z</time>
      </trkpt>
      <trkpt lat="46.70702" lon="6.13883">
        <ele>1040</ele>
        <time>2010-05-11T12:50:45Z</time>
      </trkpt>
      <trkpt lat="46.70675" lon="6.13796">
        <ele>1040</ele>
        <time>2010-05-11T12:50:45Z</time>
      </trkpt>
      <trkpt lat="46.70651" lon="6.13703">
        <ele>1041</ele>
        <time>2010-05-11T12:50:45Z</time>
      </trkpt>
      <trkpt lat="46.70615" lon="6.13651">
        <ele>1042</ele>
        <time>2010-05-11T12:50:45Z</time>
      </trkpt>
      <trkpt lat="46.7055" lon="6.13646">
        <ele>1041</ele>
        <time>2010-05-11T12:50:45Z</time>
      </trkpt>
      <trkpt lat="46.70478" lon="6.13628">
        <ele>1036</ele>
        <time>2010-05-11T12:50:45Z</time>
      </trkpt>
      <trkpt lat="46.70518" lon="6.13582">
        <ele>1039</ele>
        <time>2010-05-11T12:50:45Z</time>
      </trkpt>
      <trkpt lat="46.70674" lon="6.13426">
        <ele>1049</ele>
        <time>2010-05-11T12:50:45Z</time>
      </trkpt>
      <trkpt lat="46.70763" lon="6.1334">
        <ele>1053</ele>
        <time>2010-05-11T12:50:45Z</time>
      </trkpt>
      <trkpt lat="46.70794" lon="6.1329">
        <ele>1055</ele>
        <time>2010-05-11T12:50:45Z</time>
      </trkpt>
      <trkpt lat="46.70802" lon="6.13242">
        <ele>1055</ele>
        <time>2010-05-11T12:50:45Z</time>
      </trkpt>
      <trkpt lat="46.70781" lon="6.13185">
        <ele>1054</ele>
        <time>2010-05-11T12:50:45Z</time>
      </trkpt>
      <trkpt lat="46.70755" lon="6.13107">
        <ele>1062</ele>
        <time>2010-05-11T12:50:45Z</time>
      </trkpt>
      <trkpt lat="46.70763" lon="6.13062">
        <ele>1064</ele>
        <time>2010-05-11T12:50:45Z</time>
      </trkpt>
      <trkpt lat="46.70748" lon="6.12966">
        <ele>1065</ele>
        <time>2010-05-11T12:50:45Z</time>
      </trkpt>
      <trkpt lat="46.70696" lon="6.12913">
        <ele>1060</ele>
        <time>2010-05-11T12:50:45Z</time>
      </trkpt>
      <trkpt lat="46.70635" lon="6.12827">
        <ele>1056</ele>
        <time>2010-05-11T12:50:45Z</time>
      </trkpt>
      <trkpt lat="46.70573" lon="6.12731">
        <ele>1049</ele>
        <time>2010-05-11T12:50:45Z</time>
      </trkpt>
      <trkpt lat="46.70497" lon="6.12847">
        <ele>1051</ele>
        <time>2010-05-11T12:50:45Z</time>
      </trkpt>
      <trkpt lat="46.70428" lon="6.12764">
        <ele>1045</ele>
        <time>2010-05-11T12:50:45Z</time>
      </trkpt>
      <trkpt lat="46.7038" lon="6.12734">
        <ele>1039</ele>
        <time>2010-05-11T12:50:45Z</time>
      </trkpt>
      <trkpt lat="46.70341" lon="6.12745">
        <ele>1036</ele>
        <time>2010-05-11T12:50:45Z</time>
      </trkpt>
      <trkpt lat="46.70311" lon="6.12775">
        <ele>1037</ele>
        <time>2010-05-11T12:50:45Z</time>
      </trkpt>
      <trkpt lat="46.70284" lon="6.12754">
        <ele>1035</ele>
        <time>2010-05-11T12:50:45Z</time>
      </trkpt>
      <trkpt lat="46.70252" lon="6.12715">
        <ele>1035</ele>
        <time>2010-05-11T12:50:45Z</time>
      </trkpt>
      <trkpt lat="46.7021" lon="6.12699">
        <ele>1036</ele>
        <time>2010-05-11T12:50:45Z</time>
      </trkpt>
      <trkpt lat="46.70182" lon="6.12661">
        <ele>1039</ele>
        <time>2010-05-11T12:50:45Z</time>
      </trkpt>
      <trkpt lat="46.7018" lon="6.12629">
        <ele>1040</ele>
        <time>2010-05-11T12:50:45Z</time>
      </trkpt>
      <trkpt lat="46.70153" lon="6.12492">
        <ele>1044</ele>
        <time>2010-05-11T12:50:45Z</time>
      </trkpt>
      <trkpt lat="46.70137" lon="6.12452">
        <ele>1045</ele>
        <time>2010-05-11T12:50:45Z</time>
      </trkpt>
      <trkpt lat="46.701" lon="6.124">
        <ele>1049</ele>
        <time>2010-05-11T12:50:45Z</time>
      </trkpt>
      <trkpt lat="46.70088" lon="6.12301">
        <ele>1052</ele>
        <time>2010-05-11T12:50:45Z</time>
      </trkpt>
      <trkpt lat="46.70107" lon="6.12257">
        <ele>1052</ele>
        <time>2010-05-11T12:50:45Z</time>
      </trkpt>
      <trkpt lat="46.70118" lon="6.12192">
        <ele>1052</ele>
        <time>2010-05-11T12:50:45Z</time>
      </trkpt>
      <trkpt lat="46.70093" lon="6.12154">
        <ele>1051</ele>
        <time>2010-05-11T12:50:45Z</time>
      </trkpt>
      <trkpt lat="46.7004" lon="6.12111">
        <ele>1050</ele>
        <time>2010-05-11T12:50:45Z</time>
      </trkpt>
      <trkpt lat="46.70005" lon="6.12011">
        <ele>1044</ele>
        <time>2010-05-11T12:50:45Z</time>
      </trkpt>
      <trkpt lat="46.70001" lon="6.11929">
        <ele>1041</ele>
        <time>2010-05-11T12:50:45Z</time>
      </trkpt>
      <trkpt lat="46.6997" lon="6.11907">
        <ele>1038</ele>
        <time>2010-05-11T12:50:45Z</time>
      </trkpt>
      <trkpt lat="46.69933" lon="6.11937">
        <ele>1037</ele>
        <time>2010-05-11T12:50:45Z</time>
      </trkpt>
      <trkpt lat="46.69889" lon="6.11918">
        <ele>1036</ele>
        <time>2010-05-11T12:50:45Z</time>
      </trkpt>
      <trkpt lat="46.69857" lon="6.11928">
        <ele>1036</ele>
        <time>2010-05-11T12:50:45Z</time>
      </trkpt>
      <trkpt lat="46.69823" lon="6.11933">
        <ele>1036</ele>
        <time>2010-05-11T12:50:45Z</time>
      </trkpt>
      <trkpt lat="46.69787" lon="6.11874">
        <ele>1037</ele>
        <time>2010-05-11T12:50:45Z</time>
      </trkpt>
      <trkpt lat="46.69762" lon="6.11797">
        <ele>1042</ele>
        <time>2010-05-11T12:50:45Z</time>
      </trkpt>
      <trkpt lat="46.69746" lon="6.11754">
        <ele>1045</ele>
        <time>2010-05-11T12:50:45Z</time>
      </trkpt>
      <trkpt lat="46.69702" lon="6.11777">
        <ele>1050</ele>
        <time>2010-05-11T12:50:45Z</time>
      </trkpt>
      <trkpt lat="46.69679" lon="6.11785">
        <ele>1053</ele>
        <time>2010-05-11T12:50:45Z</time>
      </trkpt>
      <trkpt lat="46.69652" lon="6.11724">
        <ele>1059</ele>
        <time>2010-05-11T12:50:45Z</time>
      </trkpt>
      <trkpt lat="46.6961" lon="6.11639">
        <ele>1068</ele>
        <time>2010-05-11T12:50:45Z</time>
      </trkpt>
      <trkpt lat="46.69638" lon="6.11612">
        <ele>1069</ele>
        <time>2010-05-11T12:50:45Z</time>
      </trkpt>
      <trkpt lat="46.6964" lon="6.11556">
        <ele>1072</ele>
        <time>2010-05-11T12:50:45Z</time>
      </trkpt>
      <trkpt lat="46.69659" lon="6.11499">
        <ele>1074</ele>
        <time>2010-05-11T12:50:45Z</time>
      </trkpt>
      <trkpt lat="46.69663" lon="6.11447">
        <ele>1076</ele>
        <time>2010-05-11T12:50:45Z</time>
      </trkpt>
      <trkpt lat="46.69697" lon="6.1139">
        <ele>1071</ele>
        <time>2010-05-11T12:50:45Z</time>
      </trkpt>
      <trkpt lat="46.69675" lon="6.11297">
        <ele>1072</ele>
        <time>2010-05-11T12:50:45Z</time>
      </trkpt>
      <trkpt lat="46.69645" lon="6.11174">
        <ele>1072</ele>
        <time>2010-05-11T12:50:45Z</time>
      </trkpt>
      <trkpt lat="46.69684" lon="6.11023">
        <ele>1064</ele>
        <time>2010-05-11T12:50:45Z</time>
      </trkpt>
      <trkpt lat="46.69717" lon="6.10904">
        <ele>1061</ele>
        <time>2010-05-11T12:50:45Z</time>
      </trkpt>
      <trkpt lat="46.69672" lon="6.10842">
        <ele>1064</ele>
        <time>2010-05-11T12:50:45Z</time>
      </trkpt>
      <trkpt lat="46.69608" lon="6.10808">
        <ele>1064</ele>
        <time>2010-05-11T12:50:45Z</time>
      </trkpt>
      <trkpt lat="46.69589" lon="6.10699">
        <ele>1062</ele>
        <time>2010-05-11T12:50:45Z</time>
      </trkpt>
      <trkpt lat="46.6956" lon="6.10635">
        <ele>1062</ele>
        <time>2010-05-11T12:50:45Z</time>
      </trkpt>
      <trkpt lat="46.69516" lon="6.10667">
        <ele>1061</ele>
        <time>2010-05-11T12:50:45Z</time>
      </trkpt>
      <trkpt lat="46.69475" lon="6.10668">
        <ele>1064</ele>
        <time>2010-05-11T12:50:45Z</time>
      </trkpt>
      <trkpt lat="46.69422" lon="6.10635">
        <ele>1069</ele>
        <time>2010-05-11T12:50:45Z</time>
      </trkpt>
      <trkpt lat="46.6941" lon="6.10585">
        <ele>1071</ele>
        <time>2010-05-11T12:50:45Z</time>
      </trkpt>
      <trkpt lat="46.69412" lon="6.10546">
        <ele>1072</ele>
        <time>2010-05-11T12:50:45Z</time>
      </trkpt>
      <trkpt lat="46.69399" lon="6.10535">
        <ele>1073</ele>
        <time>2010-05-11T12:50:45Z</time>
      </trkpt>
      <trkpt lat="46.69382" lon="6.1056">
        <ele>1075</ele>
        <time>2010-05-11T12:50:45Z</time>
      </trkpt>
      <trkpt lat="46.69233" lon="6.107">
        <ele>1078</ele>
        <time>2010-05-11T12:50:45Z</time>
      </trkpt>
      <trkpt lat="46.69205" lon="6.10731">
        <ele>1079</ele>
        <time>2010-05-11T12:50:45Z</time>
      </trkpt>
      <trkpt lat="46.69185" lon="6.10726">
        <ele>1080</ele>
        <time>2010-05-11T12:50:45Z</time>
      </trkpt>
      <trkpt lat="46.69163" lon="6.10702">
        <ele>1078</ele>
        <time>2010-05-11T12:50:45Z</time>
      </trkpt>
      <trkpt lat="46.69121" lon="6.10689">
        <ele>1078</ele>
        <time>2010-05-11T12:50:45Z</time>
      </trkpt>
      <trkpt lat="46.69087" lon="6.10641">
        <ele>1075</ele>
        <time>2010-05-11T12:50:45Z</time>
      </trkpt>
      <trkpt lat="46.69052" lon="6.10609">
        <ele>1074</ele>
        <time>2010-05-11T12:50:45Z</time>
      </trkpt>
      <trkpt lat="46.69004" lon="6.10619">
        <ele>1074</ele>
        <time>2010-05-11T12:50:45Z</time>
      </trkpt>
      <trkpt lat="46.69015" lon="6.10567">
        <ele>1070</ele>
        <time>2010-05-11T12:50:45Z</time>
      </trkpt>
      <trkpt lat="46.6901" lon="6.10501">
        <ele>1067</ele>
        <time>2010-05-11T12:50:45Z</time>
      </trkpt>
      <trkpt lat="46.69042" lon="6.10425">
        <ele>1067</ele>
        <time>2010-05-11T12:50:45Z</time>
      </trkpt>
      <trkpt lat="46.69051" lon="6.10301">
        <ele>1068</ele>
        <time>2010-05-11T12:50:45Z</time>
      </trkpt>
      <trkpt lat="46.69048" lon="6.10186">
        <ele>1071</ele>
        <time>2010-05-11T12:50:45Z</time>
      </trkpt>
      <trkpt lat="46.69041" lon="6.10111">
        <ele>1074</ele>
        <time>2010-05-11T12:50:45Z</time>
      </trkpt>
      <trkpt lat="46.69054" lon="6.10072">
        <ele>1075</ele>
        <time>2010-05-11T12:50:45Z</time>
      </trkpt>
      <trkpt lat="46.69021" lon="6.10037">
        <ele>1076</ele>
        <time>2010-05-11T12:50:45Z</time>
      </trkpt>
      <trkpt lat="46.68945" lon="6.09947">
        <ele>1075</ele>
        <time>2010-05-11T12:50:45Z</time>
      </trkpt>
      <trkpt lat="46.68934" lon="6.09884">
        <ele>1076</ele>
        <time>2010-05-11T12:50:45Z</time>
      </trkpt>
      <trkpt lat="46.68913" lon="6.0968">
        <ele>1080</ele>
        <time>2010-05-11T12:50:45Z</time>
      </trkpt>
      <trkpt lat="46.68903" lon="6.09512">
        <ele>1086</ele>
        <time>2010-05-11T12:50:45Z</time>
      </trkpt>
      <trkpt lat="46.69032" lon="6.09315">
        <ele>1102</ele>
        <time>2010-05-11T12:50:45Z</time>
      </trkpt>
      <trkpt lat="46.68929" lon="6.09151">
        <ele>1105</ele>
        <time>2010-05-11T12:50:45Z</time>
      </trkpt>
      <trkpt lat="46.68912" lon="6.09094">
        <ele>1109</ele>
        <time>2010-05-11T12:50:45Z</time>
      </trkpt>
      <trkpt lat="46.68919" lon="6.09035">
        <ele>1117</ele>
        <time>2010-05-11T12:50:45Z</time>
      </trkpt>
      <trkpt lat="46.68896" lon="6.08982">
        <ele>1120</ele>
        <time>2010-05-11T12:50:45Z</time>
      </trkpt>
      <trkpt lat="46.68875" lon="6.08944">
        <ele>1120</ele>
        <time>2010-05-11T12:50:45Z</time>
      </trkpt>
      <trkpt lat="46.68803" lon="6.08919">
        <ele>1109</ele>
        <time>2010-05-11T12:50:45Z</time>
      </trkpt>
      <trkpt lat="46.68775" lon="6.08826">
        <ele>1107</ele>
        <time>2010-05-11T12:50:45Z</time>
      </trkpt>
      <trkpt lat="46.68747" lon="6.08781">
        <ele>1100</ele>
        <time>2010-05-11T12:50:45Z</time>
      </trkpt>
      <trkpt lat="46.6874" lon="6.08725">
        <ele>1097</ele>
        <time>2010-05-11T12:50:45Z</time>
      </trkpt>
      <trkpt lat="46.68653" lon="6.08709">
        <ele>1087</ele>
        <time>2010-05-11T12:50:45Z</time>
      </trkpt>
      <trkpt lat="46.68622" lon="6.08684">
        <ele>1085</ele>
        <time>2010-05-11T12:50:45Z</time>
      </trkpt>
      <trkpt lat="46.68586" lon="6.08685">
        <ele>1082</ele>
        <time>2010-05-11T12:50:45Z</time>
      </trkpt>
      <trkpt lat="46.68527" lon="6.08645">
        <ele>1081</ele>
        <time>2010-05-11T12:50:45Z</time>
      </trkpt>
      <trkpt lat="46.68448" lon="6.08607">
        <ele>1077</ele>
        <time>2010-05-11T12:50:45Z</time>
      </trkpt>
      <trkpt lat="46.68421" lon="6.08592">
        <ele>1075</ele>
        <time>2010-05-11T12:50:45Z</time>
      </trkpt>
      <trkpt lat="46.68374" lon="6.08661">
        <ele>1070</ele>
        <time>2010-05-11T12:50:45Z</time>
      </trkpt>
      <trkpt lat="46.68335" lon="6.0871">
        <ele>1066</ele>
        <time>2010-05-11T12:50:45Z</time>
      </trkpt>
      <trkpt lat="46.68334" lon="6.08615">
        <ele>1068</ele>
        <time>2010-05-11T12:50:45Z</time>
      </trkpt>
      <trkpt lat="46.68311" lon="6.08555">
        <ele>1069</ele>
        <time>2010-05-11T12:50:45Z</time>
      </trkpt>
      <trkpt lat="46.68293" lon="6.08491">
        <ele>1069</ele>
        <time>2010-05-11T12:50:45Z</time>
      </trkpt>
      <trkpt lat="46.68297" lon="6.08436">
        <ele>1069</ele>
        <time>2010-05-11T12:50:45Z</time>
      </trkpt>
      <trkpt lat="46.68328" lon="6.08389">
        <ele>1071</ele>
        <time>2010-05-11T12:50:45Z</time>
      </trkpt>
      <trkpt lat="46.68308" lon="6.08299">
        <ele>1071</ele>
        <time>2010-05-11T12:50:45Z</time>
      </trkpt>
      <trkpt lat="46.6826" lon="6.08185">
        <ele>1072</ele>
        <time>2010-05-11T12:50:45Z</time>
      </trkpt>
      <trkpt lat="46.68184" lon="6.08114">
        <ele>1072</ele>
        <time>2010-05-11T12:50:45Z</time>
      </trkpt>
      <trkpt lat="46.68162" lon="6.08083">
        <ele>1075</ele>
        <time>2010-05-11T12:50:45Z</time>
      </trkpt>
      <trkpt lat="46.68124" lon="6.08009">
        <ele>1079</ele>
        <time>2010-05-11T12:50:45Z</time>
      </trkpt>
      <trkpt lat="46.68113" lon="6.07874">
        <ele>1081</ele>
        <time>2010-05-11T12:50:45Z</time>
      </trkpt>
      <trkpt lat="46.68079" lon="6.07786">
        <ele>1089</ele>
        <time>2010-05-11T12:50:45Z</time>
      </trkpt>
      <trkpt lat="46.68052" lon="6.07722">
        <ele>1097</ele>
        <time>2010-05-11T12:50:45Z</time>
      </trkpt>
      <trkpt lat="46.68086" lon="6.07581">
        <ele>1109</ele>
        <time>2010-05-11T12:50:45Z</time>
      </trkpt>
      <trkpt lat="46.68111" lon="6.07514">
        <ele>1112</ele>
        <time>2010-05-11T12:50:45Z</time>
      </trkpt>
      <trkpt lat="46.68117" lon="6.07409">
        <ele>1115</ele>
        <time>2010-05-11T12:50:45Z</time>
      </trkpt>
      <trkpt lat="46.68124" lon="6.07259">
        <ele>1115</ele>
        <time>2010-05-11T12:50:45Z</time>
      </trkpt>
      <trkpt lat="46.68112" lon="6.07196">
        <ele>1114</ele>
        <time>2010-05-11T12:50:45Z</time>
      </trkpt>
      <trkpt lat="46.68104" lon="6.07101">
        <ele>1114</ele>
        <time>2010-05-11T12:50:45Z</time>
      </trkpt>
      <trkpt lat="46.68108" lon="6.07052">
        <ele>1115</ele>
        <time>2010-05-11T12:50:45Z</time>
      </trkpt>
      <trkpt lat="46.68093" lon="6.06973">
        <ele>1114</ele>
        <time>2010-05-11T12:50:45Z</time>
      </trkpt>
      <trkpt lat="46.68099" lon="6.06911">
        <ele>1115</ele>
        <time>2010-05-11T12:50:45Z</time>
      </trkpt>
      <trkpt lat="46.68033" lon="6.06785">
        <ele>1119</ele>
        <time>2010-05-11T12:50:45Z</time>
      </trkpt>
      <trkpt lat="46.68004" lon="6.06718">
        <ele>1120</ele>
        <time>2010-05-11T12:50:45Z</time>
      </trkpt>
      <trkpt lat="46.67962" lon="6.06695">
        <ele>1120</ele>
        <time>2010-05-11T12:50:45Z</time>
      </trkpt>
      <trkpt lat="46.67868" lon="6.06682">
        <ele>1121</ele>
        <time>2010-05-11T12:50:45Z</time>
      </trkpt>
      <trkpt lat="46.67825" lon="6.06676">
        <ele>1120</ele>
        <time>2010-05-11T12:50:45Z</time>
      </trkpt>
      <trkpt lat="46.67741" lon="6.06637">
        <ele>1119</ele>
        <time>2010-05-11T12:50:45Z</time>
      </trkpt>
      <trkpt lat="46.6765" lon="6.0667">
        <ele>1113</ele>
        <time>2010-05-11T12:50:45Z</time>
      </trkpt>
      <trkpt lat="46.67628" lon="6.06666">
        <ele>1110</ele>
        <time>2010-05-11T12:50:45Z</time>
      </trkpt>
      <trkpt lat="46.67548" lon="6.06614">
        <ele>1101</ele>
        <time>2010-05-11T12:50:45Z</time>
      </trkpt>
      <trkpt lat="46.675" lon="6.06562">
        <ele>1094</ele>
        <time>2010-05-11T12:50:45Z</time>
      </trkpt>
      <trkpt lat="46.67432" lon="6.06476">
        <ele>1084</ele>
        <time>2010-05-11T12:50:45Z</time>
      </trkpt>
      <trkpt lat="46.67382" lon="6.06354">
        <ele>1071</ele>
        <time>2010-05-11T12:50:45Z</time>
      </trkpt>
      <trkpt lat="46.67264" lon="6.06529">
        <ele>1055</ele>
        <time>2010-05-11T12:50:45Z</time>
      </trkpt>
      <trkpt lat="46.67186" lon="6.06714">
        <ele>1030</ele>
        <time>2010-05-11T12:50:45Z</time>
      </trkpt>
      <trkpt lat="46.6717" lon="6.06909">
        <ele>1023</ele>
        <time>2010-05-11T12:50:45Z</time>
      </trkpt>
      <trkpt lat="46.67155" lon="6.06954">
        <ele>1022</ele>
        <time>2010-05-11T12:50:45Z</time>
      </trkpt>
      <trkpt lat="46.67122" lon="6.0686">
        <ele>1021</ele>
        <time>2010-05-11T12:50:45Z</time>
      </trkpt>
      <trkpt lat="46.67104" lon="6.06734">
        <ele>1024</ele>
        <time>2010-05-11T12:50:45Z</time>
      </trkpt>
      <trkpt lat="46.67059" lon="6.06594">
        <ele>1029</ele>
        <time>2010-05-11T12:50:45Z</time>
      </trkpt>
      <trkpt lat="46.67033" lon="6.06422">
        <ele>1041</ele>
        <time>2010-05-11T12:50:45Z</time>
      </trkpt>
      <trkpt lat="46.67041" lon="6.06193">
        <ele>1042</ele>
        <time>2010-05-11T12:50:45Z</time>
      </trkpt>
      <trkpt lat="46.67034" lon="6.05892">
        <ele>1049</ele>
        <time>2010-05-11T12:50:45Z</time>
      </trkpt>
      <trkpt lat="46.67012" lon="6.05848">
        <ele>1047</ele>
        <time>2010-05-11T12:50:45Z</time>
      </trkpt>
      <trkpt lat="46.67003" lon="6.05779">
        <ele>1046</ele>
        <time>2010-05-11T12:50:45Z</time>
      </trkpt>
      <trkpt lat="46.66961" lon="6.05704">
        <ele>1044</ele>
        <time>2010-05-11T12:50:45Z</time>
      </trkpt>
      <trkpt lat="46.66947" lon="6.05634">
        <ele>1045</ele>
        <time>2010-05-11T12:50:45Z</time>
      </trkpt>
      <trkpt lat="46.66933" lon="6.05597">
        <ele>1045</ele>
        <time>2010-05-11T12:50:45Z</time>
      </trkpt>
      <trkpt lat="46.66932" lon="6.05538">
        <ele>1047</ele>
        <time>2010-05-11T12:50:45Z</time>
      </trkpt>
      <trkpt lat="46.66879" lon="6.05381">
        <ele>1048</ele>
        <time>2010-05-11T12:50:45Z</time>
      </trkpt>
      <trkpt lat="46.66882" lon="6.05293">
        <ele>1050</ele>
        <time>2010-05-11T12:50:45Z</time>
      </trkpt>
      <trkpt lat="46.66868" lon="6.05243">
        <ele>1050</ele>
        <time>2010-05-11T12:50:45Z</time>
      </trkpt>
      <trkpt lat="46.66814" lon="6.0517">
        <ele>1052</ele>
        <time>2010-05-11T12:50:45Z</time>
      </trkpt>
      <trkpt lat="46.66771" lon="6.05105">
        <ele>1057</ele>
        <time>2010-05-11T12:50:45Z</time>
      </trkpt>
      <trkpt lat="46.66762" lon="6.05026">
        <ele>1058</ele>
        <time>2010-05-11T12:50:45Z</time>
      </trkpt>
      <trkpt lat="46.66744" lon="6.04969">
        <ele>1061</ele>
        <time>2010-05-11T12:50:45Z</time>
      </trkpt>
      <trkpt lat="46.66731" lon="6.04939">
        <ele>1061</ele>
        <time>2010-05-11T12:50:45Z</time>
      </trkpt>
      <trkpt lat="46.66701" lon="6.04894">
        <ele>1059</ele>
        <time>2010-05-11T12:50:45Z</time>
      </trkpt>
      <trkpt lat="46.66685" lon="6.04834">
        <ele>1056</ele>
        <time>2010-05-11T12:50:45Z</time>
      </trkpt>
      <trkpt lat="46.66686" lon="6.04733">
        <ele>1053</ele>
        <time>2010-05-11T12:50:45Z</time>
      </trkpt>
      <trkpt lat="46.66706" lon="6.04689">
        <ele>1056</ele>
        <time>2010-05-11T12:50:45Z</time>
      </trkpt>
      <trkpt lat="46.66708" lon="6.04633">
        <ele>1058</ele>
        <time>2010-05-11T12:50:45Z</time>
      </trkpt>
      <trkpt lat="46.66742" lon="6.04596">
        <ele>1063</ele>
        <time>2010-05-11T12:50:45Z</time>
      </trkpt>
      <trkpt lat="46.66764" lon="6.04568">
        <ele>1067</ele>
        <time>2010-05-11T12:50:45Z</time>
      </trkpt>
      <trkpt lat="46.66774" lon="6.04517">
        <ele>1067</ele>
        <time>2010-05-11T12:50:45Z</time>
      </trkpt>
      <trkpt lat="46.66804" lon="6.04499">
        <ele>1074</ele>
        <time>2010-05-11T12:50:45Z</time>
      </trkpt>
      <trkpt lat="46.66867" lon="6.04363">
        <ele>1083</ele>
        <time>2010-05-11T12:50:45Z</time>
      </trkpt>
      <trkpt lat="46.66909" lon="6.04317">
        <ele>1086</ele>
        <time>2010-05-11T12:50:45Z</time>
      </trkpt>
      <trkpt lat="46.66927" lon="6.04315">
        <ele>1089</ele>
        <time>2010-05-11T12:50:45Z</time>
      </trkpt>
      <trkpt lat="46.67074" lon="6.04177">
        <ele>1107</ele>
        <time>2010-05-11T12:50:45Z</time>
      </trkpt>
      <trkpt lat="46.67086" lon="6.04155">
        <ele>1103</ele>
        <time>2010-05-11T12:50:45Z</time>
      </trkpt>
      <trkpt lat="46.67245" lon="6.04179">
        <ele>1073</ele>
        <time>2010-05-11T12:50:45Z</time>
      </trkpt>
      <trkpt lat="46.67313" lon="6.04155">
        <ele>1048</ele>
        <time>2010-05-11T12:50:45Z</time>
      </trkpt>
      <trkpt lat="46.67405" lon="6.04249">
        <ele>1039</ele>
        <time>2010-05-11T12:50:45Z</time>
      </trkpt>
      <trkpt lat="46.67421" lon="6.0429">
        <ele>1044</ele>
        <time>2010-05-11T12:50:45Z</time>
      </trkpt>
      <trkpt lat="46.67521" lon="6.04401">
        <ele>1052</ele>
        <time>2010-05-11T12:50:45Z</time>
      </trkpt>
      <trkpt lat="46.67588" lon="6.04419">
        <ele>1035</ele>
        <time>2010-05-11T12:50:45Z</time>
      </trkpt>
      <trkpt lat="46.67589" lon="6.04448">
        <ele>1045</ele>
        <time>2010-05-11T12:50:45Z</time>
      </trkpt>
      <trkpt lat="46.6762" lon="6.04473">
        <ele>1041</ele>
        <time>2010-05-11T12:50:45Z</time>
      </trkpt>
      <trkpt lat="46.67693" lon="6.04583">
        <ele>1039</ele>
        <time>2010-05-11T12:50:45Z</time>
      </trkpt>
      <trkpt lat="46.67745" lon="6.04642">
        <ele>1035</ele>
        <time>2010-05-11T12:50:45Z</time>
      </trkpt>
      <trkpt lat="46.67791" lon="6.04632">
        <ele>1031</ele>
        <time>2010-05-11T12:50:45Z</time>
      </trkpt>
      <trkpt lat="46.67883" lon="6.04629">
        <ele>1034</ele>
        <time>2010-05-11T12:50:45Z</time>
      </trkpt>
      <trkpt lat="46.67934" lon="6.04573">
        <ele>1037</ele>
        <time>2010-05-11T12:50:45Z</time>
      </trkpt>
      <trkpt lat="46.67969" lon="6.04563">
        <ele>1040</ele>
        <time>2010-05-11T12:50:45Z</time>
      </trkpt>
      <trkpt lat="46.68029" lon="6.04501">
        <ele>1046</ele>
        <time>2010-05-11T12:50:45Z</time>
      </trkpt>
      <trkpt lat="46.68027" lon="6.04505">
        <ele>1045</ele>
        <time>2010-05-11T12:50:45Z</time>
      </trkpt>
      <trkpt lat="46.67979" lon="6.04382">
        <ele>1047</ele>
        <time>2010-05-11T12:50:45Z</time>
      </trkpt>
      <trkpt lat="46.67942" lon="6.04271">
        <ele>1055</ele>
        <time>2010-05-11T12:50:45Z</time>
      </trkpt>
      <trkpt lat="46.6788" lon="6.04169">
        <ele>1057</ele>
        <time>2010-05-11T12:50:45Z</time>
      </trkpt>
      <trkpt lat="46.6786" lon="6.04154">
        <ele>1054</ele>
        <time>2010-05-11T12:50:45Z</time>
      </trkpt>
      <trkpt lat="46.67844" lon="6.04091">
        <ele>1065</ele>
        <time>2010-05-11T12:50:45Z</time>
      </trkpt>
      <trkpt lat="46.67817" lon="6.04024">
        <ele>1069</ele>
        <time>2010-05-11T12:50:45Z</time>
      </trkpt>
      <trkpt lat="46.6781" lon="6.03978">
        <ele>1075</ele>
        <time>2010-05-11T12:50:45Z</time>
      </trkpt>
      <trkpt lat="46.67792" lon="6.03953">
        <ele>1074</ele>
        <time>2010-05-11T12:50:45Z</time>
      </trkpt>
      <trkpt lat="46.67787" lon="6.03907">
        <ele>1083</ele>
        <time>2010-05-11T12:50:45Z</time>
      </trkpt>
      <trkpt lat="46.67799" lon="6.03875">
        <ele>1091</ele>
        <time>2010-05-11T12:50:45Z</time>
      </trkpt>
      <trkpt lat="46.67863" lon="6.03847">
        <ele>1089</ele>
        <time>2010-05-11T12:50:45Z</time>
      </trkpt>
      <trkpt lat="46.67911" lon="6.0385">
        <ele>1086</ele>
        <time>2010-05-11T12:50:45Z</time>
      </trkpt>
      <trkpt lat="46.6796" lon="6.03785">
        <ele>1070</ele>
        <time>2010-05-11T12:50:45Z</time>
      </trkpt>
      <trkpt lat="46.68038" lon="6.03869">
        <ele>1062</ele>
        <time>2010-05-11T12:50:45Z</time>
      </trkpt>
      <trkpt lat="46.68073" lon="6.03904">
        <ele>1057</ele>
        <time>2010-05-11T12:50:45Z</time>
      </trkpt>
      <trkpt lat="46.68084" lon="6.03928">
        <ele>1059</ele>
        <time>2010-05-11T12:50:45Z</time>
      </trkpt>
      <trkpt lat="46.68172" lon="6.03983">
        <ele>1045</ele>
        <time>2010-05-11T12:50:45Z</time>
      </trkpt>
      <trkpt lat="46.68223" lon="6.04009">
        <ele>1033</ele>
        <time>2010-05-11T12:50:45Z</time>
      </trkpt>
      <trkpt lat="46.68257" lon="6.04083">
        <ele>1035</ele>
        <time>2010-05-11T12:50:45Z</time>
      </trkpt>
      <trkpt lat="46.68323" lon="6.04196">
        <ele>1028</ele>
        <time>2010-05-11T12:50:45Z</time>
      </trkpt>
      <trkpt lat="46.68398" lon="6.04306">
        <ele>1017</ele>
        <time>2010-05-11T12:50:45Z</time>
      </trkpt>
      <trkpt lat="46.68458" lon="6.04395">
        <ele>1009</ele>
        <time>2010-05-11T12:50:45Z</time>
      </trkpt>
      <trkpt lat="46.6851" lon="6.04461">
        <ele>999</ele>
        <time>2010-05-11T12:50:45Z</time>
      </trkpt>
      <trkpt lat="46.68538" lon="6.04505">
        <ele>996</ele>
        <time>2010-05-11T12:50:45Z</time>
      </trkpt>
      <trkpt lat="46.68628" lon="6.04626">
        <ele>984</ele>
        <time>2010-05-11T12:50:45Z</time>
      </trkpt>
      <trkpt lat="46.687" lon="6.04703">
        <ele>979</ele>
        <time>2010-05-11T12:50:45Z</time>
      </trkpt>
      <trkpt lat="46.6878" lon="6.04748">
        <ele>971</ele>
        <time>2010-05-11T12:50:45Z</time>
      </trkpt>
      <trkpt lat="46.68857" lon="6.04795">
        <ele>968</ele>
        <time>2010-05-11T12:50:45Z</time>
      </trkpt>
      <trkpt lat="46.68902" lon="6.04785">
        <ele>962</ele>
        <time>2010-05-11T12:50:45Z</time>
      </trkpt>
      <trkpt lat="46.68887" lon="6.04693">
        <ele>955</ele>
        <time>2010-05-11T12:50:45Z</time>
      </trkpt>
      <trkpt lat="46.68853" lon="6.04579">
        <ele>954</ele>
        <time>2010-05-11T12:50:45Z</time>
      </trkpt>
      <trkpt lat="46.68846" lon="6.04538">
        <ele>954</ele>
        <time>2010-05-11T12:50:45Z</time>
      </trkpt>
      <trkpt lat="46.68853" lon="6.04479">
        <ele>954</ele>
        <time>2010-05-11T12:50:45Z</time>
      </trkpt>
      <trkpt lat="46.68861" lon="6.04362">
        <ele>952</ele>
        <time>2010-05-11T12:50:45Z</time>
      </trkpt>
      <trkpt lat="46.68935" lon="6.04289">
        <ele>949</ele>
        <time>2010-05-11T12:50:45Z</time>
      </trkpt>
      <trkpt lat="46.69032" lon="6.04217">
        <ele>947</ele>
        <time>2010-05-11T12:50:45Z</time>
      </trkpt>
      <trkpt lat="46.69106" lon="6.0417">
        <ele>946</ele>
        <time>2010-05-11T12:50:45Z</time>
      </trkpt>
      <trkpt lat="46.69203" lon="6.04104">
        <ele>945</ele>
        <time>2010-05-11T12:50:45Z</time>
      </trkpt>
      <trkpt lat="46.69205" lon="6.04026">
        <ele>944</ele>
        <time>2010-05-11T12:50:45Z</time>
      </trkpt>
      <trkpt lat="46.69193" lon="6.03979">
        <ele>942</ele>
        <time>2010-05-11T12:50:45Z</time>
      </trkpt>
      <trkpt lat="46.69168" lon="6.03912">
        <ele>940</ele>
        <time>2010-05-11T12:50:45Z</time>
      </trkpt>
      <trkpt lat="46.69138" lon="6.03877">
        <ele>938</ele>
        <time>2010-05-11T12:50:45Z</time>
      </trkpt>
      <trkpt lat="46.69095" lon="6.03809">
        <ele>935</ele>
        <time>2010-05-11T12:50:45Z</time>
      </trkpt>
      <trkpt lat="46.69031" lon="6.03713">
        <ele>932</ele>
        <time>2010-05-11T12:50:45Z</time>
      </trkpt>
      <trkpt lat="46.68966" lon="6.0363">
        <ele>932</ele>
        <time>2010-05-11T12:50:45Z</time>
      </trkpt>
      <trkpt lat="46.68946" lon="6.03537">
        <ele>930</ele>
        <time>2010-05-11T12:50:45Z</time>
      </trkpt>
      <trkpt lat="46.68904" lon="6.03455">
        <ele>928</ele>
        <time>2010-05-11T12:50:45Z</time>
      </trkpt>
      <trkpt lat="46.68852" lon="6.03386">
        <ele>928</ele>
        <time>2010-05-11T12:50:45Z</time>
      </trkpt>
      <trkpt lat="46.68796" lon="6.03311">
        <ele>926</ele>
        <time>2010-05-11T12:50:45Z</time>
      </trkpt>
      <trkpt lat="46.68762" lon="6.03249">
        <ele>926</ele>
        <time>2010-05-11T12:50:45Z</time>
      </trkpt>
      <trkpt lat="46.68747" lon="6.03157">
        <ele>924</ele>
        <time>2010-05-11T12:50:45Z</time>
      </trkpt>
      <trkpt lat="46.68741" lon="6.03052">
        <ele>920</ele>
        <time>2010-05-11T12:50:45Z</time>
      </trkpt>
      <trkpt lat="46.68727" lon="6.02939">
        <ele>915</ele>
        <time>2010-05-11T12:50:45Z</time>
      </trkpt>
      <trkpt lat="46.68694" lon="6.02846">
        <ele>913</ele>
        <time>2010-05-11T12:50:45Z</time>
      </trkpt>
      <trkpt lat="46.68639" lon="6.02737">
        <ele>912</ele>
        <time>2010-05-11T12:50:45Z</time>
      </trkpt>
      <trkpt lat="46.68592" lon="6.02649">
        <ele>910</ele>
        <time>2010-05-11T12:50:45Z</time>
      </trkpt>
      <trkpt lat="46.68572" lon="6.02576">
        <ele>910</ele>
        <time>2010-05-11T12:50:45Z</time>
      </trkpt>
      <trkpt lat="46.68474" lon="6.02412">
        <ele>908</ele>
        <time>2010-05-11T12:50:45Z</time>
      </trkpt>
      <trkpt lat="46.68334" lon="6.02291">
        <ele>897</ele>
        <time>2010-05-11T12:50:45Z</time>
      </trkpt>
      <trkpt lat="46.6826" lon="6.02207">
        <ele>890</ele>
        <time>2010-05-11T12:50:45Z</time>
      </trkpt>
      <trkpt lat="46.68185" lon="6.02137">
        <ele>881</ele>
        <time>2010-05-11T12:50:45Z</time>
      </trkpt>
      <trkpt lat="46.68169" lon="6.02083">
        <ele>879</ele>
        <time>2010-05-11T12:50:45Z</time>
      </trkpt>
      <trkpt lat="46.68179" lon="6.02051">
        <ele>877</ele>
        <time>2010-05-11T12:50:45Z</time>
      </trkpt>
      <trkpt lat="46.68217" lon="6.01982">
        <ele>875</ele>
        <time>2010-05-11T12:50:45Z</time>
      </trkpt>
      <trkpt lat="46.68292" lon="6.01896">
        <ele>873</ele>
        <time>2010-05-11T12:50:45Z</time>
      </trkpt>
      <trkpt lat="46.68393" lon="6.01844">
        <ele>871</ele>
        <time>2010-05-11T12:50:45Z</time>
      </trkpt>
      <trkpt lat="46.68471" lon="6.0181">
        <ele>871</ele>
        <time>2010-05-11T12:50:45Z</time>
      </trkpt>
      <trkpt lat="46.68532" lon="6.01735">
        <ele>868</ele>
        <time>2010-05-11T12:50:45Z</time>
      </trkpt>
      <trkpt lat="46.68619" lon="6.01682">
        <ele>868</ele>
        <time>2010-05-11T12:50:45Z</time>
      </trkpt>
      <trkpt lat="46.68711" lon="6.01636">
        <ele>867</ele>
        <time>2010-05-11T12:50:45Z</time>
      </trkpt>
      <trkpt lat="46.68762" lon="6.01587">
        <ele>865</ele>
        <time>2010-05-11T12:50:45Z</time>
      </trkpt>
      <trkpt lat="46.68807" lon="6.01571">
        <ele>865</ele>
        <time>2010-05-11T12:50:45Z</time>
      </trkpt>
      <trkpt lat="46.68866" lon="6.01549">
        <ele>860</ele>
        <time>2010-05-11T12:50:45Z</time>
      </trkpt>
      <trkpt lat="46.68921" lon="6.0152">
        <ele>857</ele>
        <time>2010-05-11T12:50:45Z</time>
      </trkpt>
      <trkpt lat="46.68937" lon="6.01462">
        <ele>855</ele>
        <time>2010-05-11T12:50:45Z</time>
      </trkpt>
      <trkpt lat="46.68997" lon="6.01407">
        <ele>855</ele>
        <time>2010-05-11T12:50:45Z</time>
      </trkpt>
      <trkpt lat="46.69067" lon="6.0132">
        <ele>855</ele>
        <time>2010-05-11T12:50:45Z</time>
      </trkpt>
      <trkpt lat="46.69169" lon="6.01235">
        <ele>850</ele>
        <time>2010-05-11T12:50:45Z</time>
      </trkpt>
      <trkpt lat="46.69222" lon="6.01134">
        <ele>847</ele>
        <time>2010-05-11T12:50:45Z</time>
      </trkpt>
      <trkpt lat="46.69314" lon="6.01088">
        <ele>845</ele>
        <time>2010-05-11T12:50:45Z</time>
      </trkpt>
      <trkpt lat="46.69392" lon="6.01041">
        <ele>843</ele>
        <time>2010-05-11T12:50:45Z</time>
      </trkpt>
      <trkpt lat="46.69434" lon="6.00998">
        <ele>843</ele>
        <time>2010-05-11T12:50:45Z</time>
      </trkpt>
      <trkpt lat="46.69453" lon="6.00947">
        <ele>845</ele>
        <time>2010-05-11T12:50:45Z</time>
      </trkpt>
      <trkpt lat="46.69442" lon="6.00874">
        <ele>850</ele>
        <time>2010-05-11T12:50:45Z</time>
      </trkpt>
      <trkpt lat="46.69427" lon="6.00782">
        <ele>855</ele>
        <time>2010-05-11T12:50:45Z</time>
      </trkpt>
      <trkpt lat="46.69434" lon="6.00704">
        <ele>857</ele>
        <time>2010-05-11T12:50:45Z</time>
      </trkpt>
      <trkpt lat="46.69463" lon="6.0064">
        <ele>861</ele>
        <time>2010-05-11T12:50:45Z</time>
      </trkpt>
      <trkpt lat="46.69433" lon="6.00592">
        <ele>859</ele>
        <time>2010-05-11T12:50:45Z</time>
      </trkpt>
      <trkpt lat="46.6946" lon="6.0047">
        <ele>859</ele>
        <time>2010-05-11T12:50:45Z</time>
      </trkpt>
      <trkpt lat="46.69495" lon="6.00341">
        <ele>862</ele>
        <time>2010-05-11T12:50:45Z</time>
      </trkpt>
      <trkpt lat="46.69506" lon="6.0027">
        <ele>865</ele>
        <time>2010-05-11T12:50:45Z</time>
      </trkpt>
      <trkpt lat="46.69495" lon="6.00204">
        <ele>869</ele>
        <time>2010-05-11T12:50:45Z</time>
      </trkpt>
      <trkpt lat="46.69544" lon="6.00083">
        <ele>868</ele>
        <time>2010-05-11T12:50:45Z</time>
      </trkpt>
      <trkpt lat="46.69566" lon="5.99973">
        <ele>868</ele>
        <time>2010-05-11T12:50:45Z</time>
      </trkpt>
      <trkpt lat="46.69552" lon="5.99822">
        <ele>866</ele>
        <time>2010-05-11T12:50:45Z</time>
      </trkpt>
      <trkpt lat="46.69521" lon="5.99675">
        <ele>867</ele>
        <time>2010-05-11T12:50:45Z</time>
      </trkpt>
      <trkpt lat="46.69533" lon="5.99585">
        <ele>869</ele>
        <time>2010-05-11T12:50:45Z</time>
      </trkpt>
      <trkpt lat="46.69564" lon="5.99462">
        <ele>871</ele>
        <time>2010-05-11T12:50:45Z</time>
      </trkpt>
      <trkpt lat="46.69526" lon="5.99381">
        <ele>870</ele>
        <time>2010-05-11T12:50:45Z</time>
      </trkpt>
      <trkpt lat="46.69488" lon="5.993">
        <ele>867</ele>
        <time>2010-05-11T12:50:45Z</time>
      </trkpt>
      <trkpt lat="46.69483" lon="5.99182">
        <ele>865</ele>
        <time>2010-05-11T12:50:45Z</time>
      </trkpt>
      <trkpt lat="46.69501" lon="5.99046">
        <ele>858</ele>
        <time>2010-05-11T12:50:45Z</time>
      </trkpt>
      <trkpt lat="46.6949" lon="5.98967">
        <ele>854</ele>
        <time>2010-05-11T12:50:45Z</time>
      </trkpt>
      <trkpt lat="46.69529" lon="5.98878">
        <ele>849</ele>
        <time>2010-05-11T12:50:45Z</time>
      </trkpt>
      <trkpt lat="46.69563" lon="5.98795">
        <ele>845</ele>
        <time>2010-05-11T12:50:45Z</time>
      </trkpt>
      <trkpt lat="46.69591" lon="5.98757">
        <ele>844</ele>
        <time>2010-05-11T12:50:45Z</time>
      </trkpt>
      <trkpt lat="46.69594" lon="5.98672">
        <ele>840</ele>
        <time>2010-05-11T12:50:45Z</time>
      </trkpt>
      <trkpt lat="46.69609" lon="5.98602">
        <ele>839</ele>
        <time>2010-05-11T12:50:45Z</time>
      </trkpt>
      <trkpt lat="46.69604" lon="5.98496">
        <ele>836</ele>
        <time>2010-05-11T12:50:45Z</time>
      </trkpt>
      <trkpt lat="46.69584" lon="5.9841">
        <ele>833</ele>
        <time>2010-05-11T12:50:45Z</time>
      </trkpt>
      <trkpt lat="46.6959" lon="5.98352">
        <ele>830</ele>
        <time>2010-05-11T12:50:45Z</time>
      </trkpt>
      <trkpt lat="46.69615" lon="5.98294">
        <ele>828</ele>
        <time>2010-05-11T12:50:45Z</time>
      </trkpt>
      <trkpt lat="46.69608" lon="5.98222">
        <ele>823</ele>
        <time>2010-05-11T12:50:45Z</time>
      </trkpt>
      <trkpt lat="46.69616" lon="5.98131">
        <ele>818</ele>
        <time>2010-05-11T12:50:45Z</time>
      </trkpt>
      <trkpt lat="46.69582" lon="5.98037">
        <ele>815</ele>
        <time>2010-05-11T12:50:45Z</time>
      </trkpt>
      <trkpt lat="46.69531" lon="5.97961">
        <ele>813</ele>
        <time>2010-05-11T12:50:45Z</time>
      </trkpt>
      <trkpt lat="46.69466" lon="5.97892">
        <ele>808</ele>
        <time>2010-05-11T12:50:45Z</time>
      </trkpt>
      <trkpt lat="46.69397" lon="5.97789">
        <ele>801</ele>
        <time>2010-05-11T12:50:45Z</time>
      </trkpt>
      <trkpt lat="46.69351" lon="5.97681">
        <ele>795</ele>
        <time>2010-05-11T12:50:45Z</time>
      </trkpt>
      <trkpt lat="46.69348" lon="5.97615">
        <ele>792</ele>
        <time>2010-05-11T12:50:45Z</time>
      </trkpt>
      <trkpt lat="46.69361" lon="5.97485">
        <ele>784</ele>
        <time>2010-05-11T12:50:45Z</time>
      </trkpt>
      <trkpt lat="46.69382" lon="5.97408">
        <ele>780</ele>
        <time>2010-05-11T12:50:45Z</time>
      </trkpt>
      <trkpt lat="46.6942" lon="5.97339">
        <ele>778</ele>
        <time>2010-05-11T12:50:45Z</time>
      </trkpt>
      <trkpt lat="46.6944" lon="5.97288">
        <ele>775</ele>
        <time>2010-05-11T12:50:45Z</time>
      </trkpt>
      <trkpt lat="46.69375" lon="5.97355">
        <ele>774</ele>
        <time>2010-05-11T12:50:45Z</time>
      </trkpt>
      <trkpt lat="46.69345" lon="5.97425">
        <ele>776</ele>
        <time>2010-05-11T12:50:45Z</time>
      </trkpt>
      <trkpt lat="46.69269" lon="5.97551">
        <ele>776</ele>
        <time>2010-05-11T12:50:45Z</time>
      </trkpt>
      <trkpt lat="46.69201" lon="5.97586">
        <ele>777</ele>
        <time>2010-05-11T12:50:45Z</time>
      </trkpt>
      <trkpt lat="46.69193" lon="5.97533">
        <ele>777</ele>
        <time>2010-05-11T12:50:45Z</time>
      </trkpt>
      <trkpt lat="46.69195" lon="5.97474">
        <ele>779</ele>
        <time>2010-05-11T12:50:45Z</time>
      </trkpt>
      <trkpt lat="46.69238" lon="5.97405">
        <ele>779</ele>
        <time>2010-05-11T12:50:45Z</time>
      </trkpt>
      <trkpt lat="46.69303" lon="5.97337">
        <ele>775</ele>
        <time>2010-05-11T12:50:45Z</time>
      </trkpt>
      <trkpt lat="46.69327" lon="5.97293">
        <ele>774</ele>
        <time>2010-05-11T12:50:45Z</time>
      </trkpt>
      <trkpt lat="46.69339" lon="5.97209">
        <ele>773</ele>
        <time>2010-05-11T12:50:45Z</time>
      </trkpt>
      <trkpt lat="46.69328" lon="5.97117">
        <ele>769</ele>
        <time>2010-05-11T12:50:45Z</time>
      </trkpt>
      <trkpt lat="46.69273" lon="5.96995">
        <ele>767</ele>
        <time>2010-05-11T12:50:45Z</time>
      </trkpt>
      <trkpt lat="46.69195" lon="5.96924">
        <ele>770</ele>
        <time>2010-05-11T12:50:45Z</time>
      </trkpt>
      <trkpt lat="46.69128" lon="5.96894">
        <ele>774</ele>
        <time>2010-05-11T12:50:45Z</time>
      </trkpt>
      <trkpt lat="46.69069" lon="5.96896">
        <ele>780</ele>
        <time>2010-05-11T12:50:45Z</time>
      </trkpt>
      <trkpt lat="46.69006" lon="5.96912">
        <ele>786</ele>
        <time>2010-05-11T12:50:45Z</time>
      </trkpt>
      <trkpt lat="46.68935" lon="5.96887">
        <ele>789</ele>
        <time>2010-05-11T12:50:45Z</time>
      </trkpt>
      <trkpt lat="46.68844" lon="5.96901">
        <ele>795</ele>
        <time>2010-05-11T12:50:45Z</time>
      </trkpt>
      <trkpt lat="46.68741" lon="5.97018">
        <ele>805</ele>
        <time>2010-05-11T12:50:45Z</time>
      </trkpt>
      <trkpt lat="46.68637" lon="5.97194">
        <ele>815</ele>
        <time>2010-05-11T12:50:45Z</time>
      </trkpt>
      <trkpt lat="46.68515" lon="5.97324">
        <ele>812</ele>
        <time>2010-05-11T12:50:45Z</time>
      </trkpt>
      <trkpt lat="46.68422" lon="5.97416">
        <ele>809</ele>
        <time>2010-05-11T12:50:45Z</time>
      </trkpt>
      <trkpt lat="46.68325" lon="5.9752">
        <ele>802</ele>
        <time>2010-05-11T12:50:45Z</time>
      </trkpt>
      <trkpt lat="46.68276" lon="5.97628">
        <ele>800</ele>
        <time>2010-05-11T12:50:45Z</time>
      </trkpt>
      <trkpt lat="46.68205" lon="5.9761">
        <ele>803</ele>
        <time>2010-05-11T12:50:45Z</time>
      </trkpt>
      <trkpt lat="46.68182" lon="5.97615">
        <ele>801</ele>
        <time>2010-05-11T12:50:45Z</time>
      </trkpt>
      <trkpt lat="46.68111" lon="5.97722">
        <ele>805</ele>
        <time>2010-05-11T12:50:45Z</time>
      </trkpt>
      <trkpt lat="46.67967" lon="5.97869">
        <ele>799</ele>
        <time>2010-05-11T12:50:45Z</time>
      </trkpt>
      <trkpt lat="46.67883" lon="5.97955">
        <ele>806</ele>
        <time>2010-05-11T12:50:45Z</time>
      </trkpt>
      <trkpt lat="46.67814" lon="5.97996">
        <ele>806</ele>
        <time>2010-05-11T12:50:45Z</time>
      </trkpt>
      <trkpt lat="46.67791" lon="5.98014">
        <ele>807</ele>
        <time>2010-05-11T12:50:45Z</time>
      </trkpt>
      <trkpt lat="46.67771" lon="5.97934">
        <ele>804</ele>
        <time>2010-05-11T12:50:45Z</time>
      </trkpt>
      <trkpt lat="46.67735" lon="5.97945">
        <ele>804</ele>
        <time>2010-05-11T12:50:45Z</time>
      </trkpt>
      <trkpt lat="46.67706" lon="5.97989">
        <ele>805</ele>
        <time>2010-05-11T12:50:45Z</time>
      </trkpt>
      <trkpt lat="46.67647" lon="5.97998">
        <ele>806</ele>
        <time>2010-05-11T12:50:45Z</time>
      </trkpt>
      <trkpt lat="46.67474" lon="5.98065">
        <ele>803</ele>
        <time>2010-05-11T12:50:45Z</time>
      </trkpt>
      <trkpt lat="46.67405" lon="5.981">
        <ele>800</ele>
        <time>2010-05-11T12:50:45Z</time>
      </trkpt>
      <trkpt lat="46.67364" lon="5.9826">
        <ele>802</ele>
        <time>2010-05-11T12:50:45Z</time>
      </trkpt>
      <trkpt lat="46.67318" lon="5.98327">
        <ele>799</ele>
        <time>2010-05-11T12:50:45Z</time>
      </trkpt>
      <trkpt lat="46.67339" lon="5.98394">
        <ele>801</ele>
        <time>2010-05-11T12:50:45Z</time>
      </trkpt>
      <trkpt lat="46.67366" lon="5.98511">
        <ele>787</ele>
        <time>2010-05-11T12:50:45Z</time>
      </trkpt>
      <trkpt lat="46.6736" lon="5.98628">
        <ele>791</ele>
        <time>2010-05-11T12:50:45Z</time>
      </trkpt>
      <trkpt lat="46.67311" lon="5.9869">
        <ele>788</ele>
        <time>2010-05-11T12:50:45Z</time>
      </trkpt>
      <trkpt lat="46.67253" lon="5.98755">
        <ele>788</ele>
        <time>2010-05-11T12:50:45Z</time>
      </trkpt>
      <trkpt lat="46.67167" lon="5.98827">
        <ele>783</ele>
        <time>2010-05-11T12:50:45Z</time>
      </trkpt>
      <trkpt lat="46.67123" lon="5.98867">
        <ele>781</ele>
        <time>2010-05-11T12:50:45Z</time>
      </trkpt>
      <trkpt lat="46.67074" lon="5.98916">
        <ele>778</ele>
        <time>2010-05-11T12:50:45Z</time>
      </trkpt>
      <trkpt lat="46.66962" lon="5.99018">
        <ele>770</ele>
        <time>2010-05-11T12:50:45Z</time>
      </trkpt>
      <trkpt lat="46.66882" lon="5.99117">
        <ele>762</ele>
        <time>2010-05-11T12:50:45Z</time>
      </trkpt>
      <trkpt lat="46.6682" lon="5.99238">
        <ele>759</ele>
        <time>2010-05-11T12:50:45Z</time>
      </trkpt>
      <trkpt lat="46.66754" lon="5.99318">
        <ele>760</ele>
        <time>2010-05-11T12:50:45Z</time>
      </trkpt>
      <trkpt lat="46.66725" lon="5.99388">
        <ele>759</ele>
        <time>2010-05-11T12:50:45Z</time>
      </trkpt>
      <trkpt lat="46.66725" lon="5.99388">
        <ele>759</ele>
        <time>2010-05-11T12:50:45Z</time>
      </trkpt>
      <trkpt lat="46.66727" lon="5.99454">
        <ele>759</ele>
        <time>2010-05-11T12:50:45Z</time>
      </trkpt>
      <trkpt lat="46.66684" lon="5.99549">
        <ele>754</ele>
        <time>2010-05-11T12:50:45Z</time>
      </trkpt>
      <trkpt lat="46.66675" lon="5.99686">
        <ele>753</ele>
        <time>2010-05-11T12:50:45Z</time>
      </trkpt>
      <trkpt lat="46.66655" lon="5.9975">
        <ele>751</ele>
        <time>2010-05-11T12:50:45Z</time>
      </trkpt>
      <trkpt lat="46.66651" lon="5.99867">
        <ele>751</ele>
        <time>2010-05-11T12:50:45Z</time>
      </trkpt>
      <trkpt lat="46.66641" lon="5.99906">
        <ele>752</ele>
        <time>2010-05-11T12:50:45Z</time>
      </trkpt>
      <trkpt lat="46.66617" lon="5.9995">
        <ele>751</ele>
        <time>2010-05-11T12:50:45Z</time>
      </trkpt>
      <trkpt lat="46.66618" lon="6.00035">
        <ele>751</ele>
        <time>2010-05-11T12:50:45Z</time>
      </trkpt>
      <trkpt lat="46.66595" lon="6.0006">
        <ele>749</ele>
        <time>2010-05-11T12:50:45Z</time>
      </trkpt>
      <trkpt lat="46.66536" lon="6.00088">
        <ele>745</ele>
        <time>2010-05-11T12:50:45Z</time>
      </trkpt>
      <trkpt lat="46.6648" lon="6.0013">
        <ele>743</ele>
        <time>2010-05-11T12:50:45Z</time>
      </trkpt>
      <trkpt lat="46.6642" lon="6.00185">
        <ele>743</ele>
        <time>2010-05-11T12:50:45Z</time>
      </trkpt>
      <trkpt lat="46.66324" lon="6.00218">
        <ele>742</ele>
        <time>2010-05-11T12:50:45Z</time>
      </trkpt>
      <trkpt lat="46.66237" lon="6.00277">
        <ele>743</ele>
        <time>2010-05-11T12:50:45Z</time>
      </trkpt>
      <trkpt lat="46.66154" lon="6.00331">
        <ele>745</ele>
        <time>2010-05-11T12:50:45Z</time>
      </trkpt>
      <trkpt lat="46.6602" lon="6.00433">
        <ele>735</ele>
        <time>2010-05-11T12:50:45Z</time>
      </trkpt>
      <trkpt lat="46.65972" lon="6.00528">
        <ele>735</ele>
        <time>2010-05-11T12:50:45Z</time>
      </trkpt>
      <trkpt lat="46.65928" lon="6.00655">
        <ele>737</ele>
        <time>2010-05-11T12:50:45Z</time>
      </trkpt>
      <trkpt lat="46.65903" lon="6.00719">
        <ele>727</ele>
        <time>2010-05-11T12:50:45Z</time>
      </trkpt>
      <trkpt lat="46.65932" lon="6.00786">
        <ele>729</ele>
        <time>2010-05-11T12:50:45Z</time>
      </trkpt>
      <trkpt lat="46.65979" lon="6.00875">
        <ele>735</ele>
        <time>2010-05-11T12:50:45Z</time>
      </trkpt>
      <trkpt lat="46.65986" lon="6.00941">
        <ele>727</ele>
        <time>2010-05-11T12:50:45Z</time>
      </trkpt>
      <trkpt lat="46.65965" lon="6.01018">
        <ele>715</ele>
        <time>2010-05-11T12:50:45Z</time>
      </trkpt>
      <trkpt lat="46.65915" lon="6.01047">
        <ele>716</ele>
        <time>2010-05-11T12:50:45Z</time>
      </trkpt>
      <trkpt lat="46.6584" lon="6.01003">
        <ele>722</ele>
        <time>2010-05-11T12:50:45Z</time>
      </trkpt>
      <trkpt lat="46.65787" lon="6.00973">
        <ele>723</ele>
        <time>2010-05-11T12:50:45Z</time>
      </trkpt>
      <trkpt lat="46.65696" lon="6.0098">
        <ele>726</ele>
        <time>2010-05-11T12:50:45Z</time>
      </trkpt>
      <trkpt lat="46.65588" lon="6.00986">
        <ele>727</ele>
        <time>2010-05-11T12:50:45Z</time>
      </trkpt>
      <trkpt lat="46.65501" lon="6.01025">
        <ele>730</ele>
        <time>2010-05-11T12:50:45Z</time>
      </trkpt>
      <trkpt lat="46.65469" lon="6.01043">
        <ele>730</ele>
        <time>2010-05-11T12:50:45Z</time>
      </trkpt>
      <trkpt lat="46.65458" lon="6.01127">
        <ele>731</ele>
        <time>2010-05-11T12:50:45Z</time>
      </trkpt>
      <trkpt lat="46.6545" lon="6.01225">
        <ele>732</ele>
        <time>2010-05-11T12:50:45Z</time>
      </trkpt>
      <trkpt lat="46.65415" lon="6.0132">
        <ele>731</ele>
        <time>2010-05-11T12:50:45Z</time>
      </trkpt>
      <trkpt lat="46.6535" lon="6.01388">
        <ele>729</ele>
        <time>2010-05-11T12:50:45Z</time>
      </trkpt>
      <trkpt lat="46.65293" lon="6.01469">
        <ele>741</ele>
        <time>2010-05-11T12:50:45Z</time>
      </trkpt>
      <trkpt lat="46.65213" lon="6.01601">
        <ele>742</ele>
        <time>2010-05-11T12:50:45Z</time>
      </trkpt>
      <trkpt lat="46.65178" lon="6.01684">
        <ele>741</ele>
        <time>2010-05-11T12:50:45Z</time>
      </trkpt>
      <trkpt lat="46.6518" lon="6.01769">
        <ele>740</ele>
        <time>2010-05-11T12:50:45Z</time>
      </trkpt>
      <trkpt lat="46.65199" lon="6.01875">
        <ele>736</ele>
        <time>2010-05-11T12:50:45Z</time>
      </trkpt>
      <trkpt lat="46.65179" lon="6.01939">
        <ele>734</ele>
        <time>2010-05-11T12:50:45Z</time>
      </trkpt>
      <trkpt lat="46.65105" lon="6.01993">
        <ele>746</ele>
        <time>2010-05-11T12:50:45Z</time>
      </trkpt>
      <trkpt lat="46.64999" lon="6.02064">
        <ele>751</ele>
        <time>2010-05-11T12:50:45Z</time>
      </trkpt>
      <trkpt lat="46.6493" lon="6.02131">
        <ele>753</ele>
        <time>2010-05-11T12:50:45Z</time>
      </trkpt>
      <trkpt lat="46.64886" lon="6.02226">
        <ele>757</ele>
        <time>2010-05-11T12:50:45Z</time>
      </trkpt>
      <trkpt lat="46.64846" lon="6.02348">
        <ele>758</ele>
        <time>2010-05-11T12:50:45Z</time>
      </trkpt>
      <trkpt lat="46.64813" lon="6.02404">
        <ele>774</ele>
        <time>2010-05-11T12:50:45Z</time>
      </trkpt>
      <trkpt lat="46.64732" lon="6.02399">
        <ele>772</ele>
        <time>2010-05-11T12:50:45Z</time>
      </trkpt>
      <trkpt lat="46.64614" lon="6.02417">
        <ele>783</ele>
        <time>2010-05-11T12:50:45Z</time>
      </trkpt>
      <trkpt lat="46.64553" lon="6.02491">
        <ele>813</ele>
        <time>2010-05-11T12:50:45Z</time>
      </trkpt>
      <trkpt lat="46.64477" lon="6.0261">
        <ele>798</ele>
        <time>2010-05-11T12:50:45Z</time>
      </trkpt>
      <trkpt lat="46.64454" lon="6.02648">
        <ele>792</ele>
        <time>2010-05-11T12:50:45Z</time>
      </trkpt>
      <trkpt lat="46.6439" lon="6.02676">
        <ele>798</ele>
        <time>2010-05-11T12:50:45Z</time>
      </trkpt>
      <trkpt lat="46.64285" lon="6.02721">
        <ele>792</ele>
        <time>2010-05-11T12:50:45Z</time>
      </trkpt>
      <trkpt lat="46.64144" lon="6.02764">
        <ele>791</ele>
        <time>2010-05-11T12:50:45Z</time>
      </trkpt>
      <trkpt lat="46.64084" lon="6.02793">
        <ele>794</ele>
        <time>2010-05-11T12:50:45Z</time>
      </trkpt>
      <trkpt lat="46.64065" lon="6.0282">
        <ele>795</ele>
        <time>2010-05-11T12:50:45Z</time>
      </trkpt>
      <trkpt lat="46.64052" lon="6.02871">
        <ele>794</ele>
        <time>2010-05-11T12:50:45Z</time>
      </trkpt>
      <trkpt lat="46.64039" lon="6.0294">
        <ele>792</ele>
        <time>2010-05-11T12:50:45Z</time>
      </trkpt>
      <trkpt lat="46.64006" lon="6.02999">
        <ele>793</ele>
        <time>2010-05-11T12:50:45Z</time>
      </trkpt>
    </trkseg>
  </trk>
</gpx>